CW9600 Weather Reports


time (UTC)temp
F
wind
direction
speed
knots
gust
knots
rain 1hr
in
rain 24hr
in
rain mn
in
humidity
%
barometer
mb
20260507162306 57 176 7.0 11.3 0.00 0.00 0.00 56
20260507162224 57 175 7.0 11.3 0.00 0.00 0.00 56
20260507162123 57 175 6.1 11.3 0.00 0.00 0.00 56
20260507162002 57 174 6.1 11.3 0.00 0.00 0.00 56
20260507161902 57 174 6.1 11.3 0.00 0.00 0.00 56
20260507161802 57 173 6.1 11.3 0.00 0.00 0.00 56
20260507161702 57 173 6.1 11.3 0.00 0.00 0.00 56
20260507161602 57 173 5.2 11.3 0.00 0.00 0.00 56
20260507161502 57 174 5.2 10.4 0.00 0.00 0.00 56
20260507161402 57 177 6.1 10.4 0.00 0.00 0.00 56
20260507161302 58 178 6.1 10.4 0.00 0.00 0.00 55
20260507161202 58 179 6.1 10.4 0.00 0.00 0.00 56
20260507161102 58 181 6.1 10.4 0.00 0.00 0.00 55
20260507161002 58 182 6.1 10.4 0.00 0.00 0.00 55
20260507160923 58 182 6.1 10.4 0.00 0.00 0.00 55
20260507160802 58 183 6.1 11.3 0.00 0.00 0.00 56
20260507160702 58 183 6.1 11.3 0.00 0.00 0.00 56
20260507160623 58 183 6.1 11.3 0.00 0.00 0.00 56
20260507160502 58 186 7.0 11.3 0.00 0.00 0.00 56
20260507160402 58 188 7.0 11.3 0.00 0.00 0.00 56
20260507160302 57 189 7.0 11.3 0.00 0.00 0.00 56
20260507160223 57 190 7.0 11.3 0.00 0.00 0.00 57
20260507160002 57 192 7.0 11.3 0.00 0.00 0.00 57
20260507155902 57 194 7.0 11.3 0.00 0.00 0.00 58
20260507155802 57 193 7.0 10.4 0.00 0.00 0.00 57
20260507155702 58 193 7.0 10.4 0.00 0.00 0.00 58
20260507155602 58 195 7.0 10.4 0.00 0.00 0.00 59
20260507155502 58 194 7.0 10.4 0.00 0.00 0.00 59
20260507155402 58 193 7.0 10.4 0.00 0.00 0.00 59
20260507155323 58 192 7.0 10.4 0.00 0.00 0.00 59
20260507155202 58 192 7.0 10.4 0.00 0.00 0.00 59
20260507155102 58 193 7.0 10.4 0.00 0.00 0.00 58
20260507155002 58 193 7.0 10.4 0.00 0.00 0.00 57
20260507154923 58 192 6.1 10.4 0.00 0.00 0.00 57
20260507154823 58 193 6.1 9.6 0.00 0.00 0.00 58
20260507154702 58 195 6.1 9.6 0.00 0.00 0.00 57
20260507154602 58 193 6.1 9.6 0.00 0.00 0.00 55
20260507154502 58 193 6.1 9.6 0.00 0.00 0.00 55
20260507154402 58 191 5.2 9.6 0.00 0.00 0.00 57
20260507154323 58 191 5.2 9.6 0.00 0.00 0.00 57
20260507154203 58 186 5.2 8.7 0.00 0.00 0.00 57
20260507154102 58 182 5.2 8.7 0.00 0.00 0.00 56
20260507154002 58 179 5.2 7.8 0.00 0.00 0.00 56
20260507153923 58 178 5.2 7.8 0.00 0.00 0.00 57
20260507153802 58 172 5.2 7.8 0.00 0.00 0.00 57
20260507153702 58 171 5.2 8.7 0.00 0.00 0.00 54
20260507153602 58 172 5.2 8.7 0.00 0.00 0.00 55
20260507153502 58 174 6.1 10.4 0.00 0.00 0.00 56
20260507153423 58 177 6.1 10.4 0.00 0.00 0.00 55
20260507153323 58 180 6.1 10.4 0.00 0.00 0.00 55
20260507153202 58 186 7.0 11.3 0.00 0.00 0.00 56
20260507153123 58 187 7.0 11.3 0.00 0.00 0.00 55
20260507153002 58 189 7.0 11.3 0.00 0.00 0.00 54
20260507152902 58 190 7.0 11.3 0.00 0.00 0.00 55
20260507152802 58 190 7.0 11.3 0.00 0.00 0.00 55
20260507152702 58 190 6.1 11.3 0.00 0.00 0.00 56
20260507152602 58 188 6.1 11.3 0.00 0.00 0.00 57
20260507152502 58 184 6.1 11.3 0.00 0.00 0.00 55
20260507152423 58 182 6.1 11.3 0.00 0.00 0.00 54
20260507152305 58 178 6.1 11.3 0.00 0.00 0.00 54
20260507152202 58 175 5.2 11.3 0.00 0.00 0.00 54
20260507152102 58 173 5.2 8.7 0.00 0.00 0.00 57
20260507152023 58 172 5.2 8.7 0.00 0.00 0.00 56
20260507151923 58 171 5.2 8.7 0.00 0.00 0.00 55
20260507151803 58 172 5.2 8.7 0.00 0.00 0.00 56
20260507151702 58 172 5.2 8.7 0.00 0.00 0.00 55
20260507151602 58 175 5.2 8.7 0.00 0.00 0.00 55
20260507151502 58 175 5.2 8.7 0.00 0.00 0.00 56
20260507151402 58 173 6.1 11.3 0.00 0.00 0.00 56
20260507151302 58 174 6.1 11.3 0.00 0.00 0.00 55
20260507151202 58 174 6.1 11.3 0.00 0.00 0.00 56
20260507151123 58 174 6.1 11.3 0.00 0.00 0.00 56
20260507151002 58 174 6.1 11.3 0.00 0.00 0.00 57
20260507150902 58 174 6.1 11.3 0.00 0.00 0.00 58
20260507150802 58 172 6.1 11.3 0.00 0.00 0.00 58
20260507150702 58 171 6.1 11.3 0.00 0.00 0.00 57
20260507150602 58 170 6.1 11.3 0.00 0.00 0.00 56
20260507150502 58 169 6.1 11.3 0.00 0.00 0.00 56
20260507150402 58 172 6.1 8.7 0.00 0.00 0.00 57
20260507150302 58 172 5.2 8.7 0.00 0.00 0.00 57
20260507150203 58 171 5.2 8.7 0.00 0.00 0.00 58
20260507150002 58 171 4.3 7.8 0.00 0.00 0.00 57
20260507145924 58 170 4.3 7.8 0.00 0.00 0.00 57
20260507145802 58 171 4.3 7.8 0.00 0.00 0.00 58
20260507145702 58 167 4.3 7.8 0.00 0.00 0.00 57
20260507145602 58 165 4.3 7.8 0.00 0.00 0.00 58
20260507145502 58 166 3.5 7.8 0.00 0.00 0.00 58
20260507145402 57 164 3.5 7.8 0.00 0.00 0.00 57
20260507145306 57 165 3.5 7.8 0.00 0.00 0.00 58
20260507145202 57 165 4.3 7.8 0.00 0.00 0.00 56
20260507145102 57 166 4.3 7.8 0.00 0.00 0.00 56
20260507145002 57 167 5.2 7.8 0.00 0.00 0.00 55
20260507144902 57 171 5.2 7.8 0.00 0.00 0.00 55
20260507144802 57 174 5.2 7.8 0.00 0.00 0.00 57
20260507144702 57 181 5.2 7.8 0.00 0.00 0.00 57
20260507144602 57 184 5.2 7.8 0.00 0.00 0.00 57
20260507144502 57 185 5.2 7.8 0.00 0.00 0.00 57
20260507144423 57 186 5.2 7.8 0.00 0.00 0.00 57
20260507144302 57 186 5.2 7.8 0.00 0.00 0.00 56
20260507144202 57 188 5.2 7.8 0.00 0.00 0.00 57
20260507144102 57 188 4.3 7.8 0.00 0.00 0.00 58
20260507144002 57 189 4.3 7.8 0.00 0.00 0.00 58
20260507143902 57 190 4.3 7.8 0.00 0.00 0.00 58
20260507143803 57 190 4.3 7.8 0.00 0.00 0.00 60
20260507143723 57 190 4.3 7.8 0.00 0.00 0.00 58
20260507143602 56 189 4.3 7.8 0.00 0.00 0.00 58
20260507143523 56 190 5.2 7.8 0.00 0.00 0.00 59
20260507143423 56 191 5.2 7.8 0.00 0.00 0.00 58
20260507143302 56 191 5.2 8.7 0.00 0.00 0.00 59
20260507143202 56 191 5.2 8.7 0.00 0.00 0.00 58
20260507143103 56 192 5.2 8.7 0.00 0.00 0.00 58
20260507143023 56 192 5.2 8.7 0.00 0.00 0.00 57
20260507142903 56 192 5.2 8.7 0.00 0.00 0.00 57
20260507142802 56 191 5.2 8.7 0.00 0.00 0.00 57
20260507142702 56 192 5.2 8.7 0.00 0.00 0.00 58
20260507142602 56 191 5.2 8.7 0.00 0.00 0.00 58
20260507142502 56 189 5.2 8.7 0.00 0.00 0.00 59
20260507142402 56 187 5.2 8.7 0.00 0.00 0.00 58
20260507142306 56 187 5.2 8.7 0.00 0.00 0.00 59
20260507142202 56 187 5.2 8.7 0.00 0.00 0.00 59
20260507142123 56 186 5.2 8.7 0.00 0.00 0.00 58
20260507142002 56 187 5.2 8.7 0.00 0.00 0.00 58
20260507141902 56 188 5.2 8.7 0.00 0.00 0.00 58
20260507141802 56 188 5.2 8.7 0.00 0.00 0.00 58
20260507141702 56 186 6.1 8.7 0.00 0.00 0.00 58
20260507141602 56 189 6.1 12.2 0.00 0.00 0.00 59
20260507141502 56 192 7.0 12.2 0.00 0.00 0.00 59
20260507141402 56 195 7.0 12.2 0.00 0.00 0.00 60
20260507141302 56 195 7.0 12.2 0.00 0.00 0.00 59
20260507141202 56 195 7.0 12.2 0.00 0.00 0.00 59
20260507141102 56 197 7.0 12.2 0.00 0.00 0.00 60
20260507141003 56 197 7.0 12.2 0.00 0.00 0.00 59
20260507140902 56 198 7.0 12.2 0.00 0.00 0.00 60
20260507140802 56 199 7.0 12.2 0.00 0.00 0.00 60
20260507140723 56 201 7.0 12.2 0.00 0.00 0.00 61
20260507140602 56 202 7.0 10.4 0.00 0.00 0.00 60
20260507140502 56 203 6.1 10.4 0.00 0.00 0.00 59
20260507140403 56 201 6.1 8.7 0.00 0.00 0.00 60
20260507140302 56 202 6.1 8.7 0.00 0.00 0.00 60
20260507140202 56 202 6.1 8.7 0.00 0.00 0.00 59
20260507140002 56 204 6.1 8.7 0.00 0.00 0.00 60
20260507135902 56 203 5.2 7.8 0.00 0.00 0.00 59
20260507135802 56 203 6.1 7.8 0.00 0.00 0.00 59
20260507135702 56 203 6.1 7.8 0.00 0.00 0.00 58
20260507135603 56 202 6.1 7.8 0.00 0.00 0.00 59
20260507135502 56 202 6.1 7.8 0.00 0.00 0.00 59
20260507135402 56 202 6.1 7.8 0.00 0.00 0.00 59
20260507135305 56 200 5.2 7.8 0.00 0.00 0.00 59
20260507135202 56 198 6.1 8.7 0.00 0.00 0.00 59
20260507135102 57 197 6.1 8.7 0.00 0.00 0.00 58
20260507135002 57 197 6.1 8.7 0.00 0.00 0.00 57
20260507134902 57 198 6.1 8.7 0.00 0.00 0.00 59
20260507134803 57 197 6.1 8.7 0.00 0.00 0.00 58
20260507134702 57 195 6.1 8.7 0.00 0.00 0.00 58
20260507134602 57 194 6.1 8.7 0.00 0.00 0.00 58
20260507134523 57 191 6.1 8.7 0.00 0.00 0.00 55
20260507134402 57 187 6.1 8.7 0.00 0.00 0.00 57
20260507134302 57 186 6.1 8.7 0.00 0.00 0.00 56
20260507134202 57 188 6.1 8.7 0.00 0.00 0.00 58
20260507134102 57 184 6.1 8.7 0.00 0.00 0.00 57
20260507134002 58 178 5.2 8.7 0.00 0.00 0.00 56
20260507133902 58 174 4.3 8.7 0.00 0.00 0.00 55
20260507133823 58 171 4.3 8.7 0.00 0.00 0.00 55
20260507133702 58 165 4.3 8.7 0.00 0.00 0.00 55
20260507133602 58 161 4.3 8.7 0.00 0.00 0.00 56
20260507133523 58 161 3.5 8.7 0.00 0.00 0.00 56
20260507133402 58 156 3.5 8.7 0.00 0.00 0.00 57
20260507133302 58 152 3.5 8.7 0.00 0.00 0.00 59
20260507133202 58 145 2.6 7.0 0.00 0.00 0.00 56
20260507133102 58 154 3.5 6.1 0.00 0.00 0.00 54
20260507133002 58 167 3.5 7.0 0.00 0.00 0.00 55
20260507132902 58 170 3.5 7.0 0.00 0.00 0.00 55
20260507132823 57 173 3.5 7.0 0.00 0.00 0.00 56
20260507132702 57 183 4.3 7.0 0.00 0.00 0.00 57
20260507132602 57 188 4.3 8.7 0.00 0.00 0.00 58
20260507132502 57 191 4.3 8.7 0.00 0.00 0.00 57
20260507132402 57 196 4.3 8.7 0.00 0.00 0.00 57
20260507132306 57 199 5.2 8.7 0.00 0.00 0.00 58
20260507132202 57 198 5.2 8.7 0.00 0.00 0.00 57
20260507132123 57 196 5.2 8.7 0.00 0.00 0.00 57
20260507132002 57 197 5.2 8.7 0.00 0.00 0.00 58
20260507131902 57 198 5.2 8.7 0.00 0.00 0.00 57
20260507131802 57 198 5.2 8.7 0.00 0.00 0.00 57
20260507131723 57 197 5.2 8.7 0.00 0.00 0.00 56
20260507131602 57 198 5.2 7.8 0.00 0.00 0.00 57
20260507131503 57 199 5.2 7.8 0.00 0.00 0.00 55
20260507131402 57 199 5.2 7.8 0.00 0.00 0.00 54
20260507131302 57 198 5.2 7.8 0.00 0.00 0.00 56
20260507131202 57 195 5.2 7.8 0.00 0.00 0.00 58
20260507131102 57 192 5.2 7.8 0.00 0.00 0.00 56
20260507131002 57 184 5.2 7.8 0.00 0.00 0.00 56
20260507130902 57 182 5.2 7.8 0.00 0.00 0.00 58
20260507130802 57 180 5.2 7.8 0.00 0.00 0.00 57
20260507130702 57 178 4.3 7.8 0.00 0.00 0.00 57
20260507130602 57 173 4.3 7.8 0.00 0.00 0.00 55
20260507130523 57 170 3.5 7.8 0.00 0.00 0.00 56
20260507130402 57 163 3.5 7.0 0.00 0.00 0.00 57
20260507130302 57 159 3.5 7.0 0.00 0.00 0.00 56
20260507130202 57 162 3.5 7.0 0.00 0.00 0.00 57
20260507130002 57 170 3.5 7.0 0.00 0.00 0.00 56
20260507125902 57 167 3.5 7.0 0.00 0.00 0.00 56
20260507125802 57 168 3.5 7.0 0.00 0.00 0.00 57
20260507125703 57 167 4.3 7.8 0.00 0.00 0.00 55
20260507125602 57 167 4.3 8.7 0.00 0.00 0.00 57
20260507125525 57 167 4.3 8.7 0.00 0.00 0.00 56
20260507125402 57 164 5.2 8.7 0.00 0.00 0.00 56
20260507125306 57 165 5.2 9.6 0.00 0.00 0.00 57
20260507125223 57 164 5.2 9.6 0.00 0.00 0.00 57
20260507125102 57 163 5.2 9.6 0.00 0.00 0.00 57
20260507125002 57 162 6.1 9.6 0.00 0.00 0.00 57
20260507124923 57 163 6.1 9.6 0.00 0.00 0.00 55
20260507124823 57 164 6.1 9.6 0.00 0.00 0.00 55
20260507124702 57 162 6.1 9.6 0.00 0.00 0.00 55
20260507124602 57 161 6.1 9.6 0.00 0.00 0.00 56
20260507124502 57 161 5.2 9.6 0.00 0.00 0.00 55
20260507124402 57 164 5.2 9.6 0.00 0.00 0.00 55
20260507124302 57 164 5.2 9.6 0.00 0.00 0.00 54
20260507124202 57 167 5.2 9.6 0.00 0.00 0.00 55
20260507124102 58 168 5.2 9.6 0.00 0.00 0.00 54
20260507124023 58 168 5.2 9.6 0.00 0.00 0.00 54
20260507123902 58 169 4.3 9.6 0.00 0.00 0.00 56
20260507123802 58 170 4.3 8.7 0.00 0.00 0.00 56
20260507123702 58 174 4.3 8.7 0.00 0.00 0.00 55
20260507123602 58 175 5.2 8.7 0.00 0.00 0.00 56
20260507123502 57 177 5.2 8.7 0.00 0.00 0.00 59
20260507123402 57 179 5.2 8.7 0.00 0.00 0.00 58
20260507123302 57 178 5.2 8.7 0.00 0.00 0.00 58
20260507123202 57 179 4.3 8.7 0.00 0.00 0.00 58
20260507123102 57 181 4.3 8.7 0.00 0.00 0.00 58
20260507123002 57 184 5.2 8.7 0.00 0.00 0.00 56
20260507122902 57 185 5.2 8.7 0.00 0.00 0.00 58
20260507122802 57 186 4.3 8.7 0.00 0.00 0.00 56
20260507122702 57 186 4.3 8.7 0.00 0.00 0.00 56
20260507122623 57 187 4.3 8.7 0.00 0.00 0.00 58
20260507122502 57 187 3.5 8.7 0.00 0.00 0.00 58
20260507122402 57 185 3.5 6.1 0.00 0.00 0.00 57
20260507122306 57 186 3.5 6.1 0.00 0.00 0.00 57
20260507122202 57 187 3.5 6.1 0.00 0.00 0.00 59
20260507122102 57 185 3.5 7.0 0.00 0.00 0.00 59
20260507122004 57 179 3.5 7.8 0.00 0.00 0.00 61
20260507121902 56 177 3.5 7.8 0.00 0.00 0.00 60
20260507121802 56 179 4.3 7.8 0.00 0.00 0.00 59
20260507121702 56 185 4.3 7.8 0.00 0.00 0.00 59
20260507121602 56 192 5.2 7.8 0.00 0.00 0.00 60
20260507121502 56 196 5.2 7.8 0.00 0.00 0.00 58
20260507121423 56 199 6.1 8.7 0.00 0.00 0.00 60
20260507121302 56 202 6.1 8.7 0.00 0.00 0.00 61
20260507121202 56 204 6.1 8.7 0.00 0.00 0.00 61
20260507121102 56 207 6.1 8.7 0.00 0.00 0.00 60
20260507121002 56 210 6.1 8.7 0.00 0.00 0.00 62
20260507120902 56 208 6.1 8.7 0.00 0.00 0.00 64
20260507120802 56 207 6.1 8.7 0.00 0.00 0.00 63
20260507120703 56 202 6.1 8.7 0.00 0.00 0.00 60
20260507120602 56 196 6.1 8.7 0.00 0.00 0.00 58
20260507120502 56 189 5.2 8.7 0.00 0.00 0.00 63
20260507120423 56 184 5.2 9.6 0.00 0.00 0.00 63
20260507120302 56 179 5.2 9.6 0.00 0.00 0.00 61
20260507120202 56 173 5.2 9.6 0.00 0.00 0.00 59
20260507120002 56 169 5.2 9.6 0.00 0.00 0.00 58
20260507115902 56 170 5.2 9.6 0.00 0.00 0.00 59
20260507115802 56 172 5.2 9.6 0.00 0.00 0.00 59
20260507115702 56 172 5.2 9.6 0.00 0.00 0.00 59
20260507115602 56 173 5.2 9.6 0.00 0.00 0.00 60
20260507115502 56 175 4.3 9.6 0.00 0.00 0.00 60
20260507115402 56 177 4.3 8.7 0.00 0.00 0.00 62
20260507115306 56 179 5.2 8.7 0.00 0.00 0.00 61
20260507115202 56 180 5.2 8.7 0.00 0.00 0.00 60
20260507115123 56 181 5.2 9.6 0.00 0.00 0.00 59
20260507115023 56 183 5.2 9.6 0.00 0.00 0.00 59
20260507114923 56 181 5.2 9.6 0.00 0.00 0.00 61
20260507114802 56 183 5.2 9.6 0.00 0.00 0.00 60
20260507114702 56 182 5.2 9.6 0.00 0.00 0.00 61
20260507114602 56 182 6.1 9.6 0.00 0.00 0.00 61
20260507114502 56 180 6.1 9.6 0.00 0.00 0.00 60
20260507114402 56 180 5.2 9.6 0.00 0.00 0.00 61
20260507114302 56 177 5.2 9.6 0.00 0.00 0.00 60
20260507114202 56 175 5.2 9.6 0.00 0.00 0.00 62
20260507114102 56 172 5.2 8.7 0.00 0.00 0.00 61
20260507114002 56 170 5.2 8.7 0.00 0.00 0.00 60
20260507113902 56 170 5.2 8.7 0.00 0.00 0.00 60
20260507113802 56 167 5.2 8.7 0.00 0.00 0.00 59
20260507113702 56 170 5.2 8.7 0.00 0.00 0.00 60
20260507113602 56 170 5.2 8.7 0.00 0.00 0.00 59
20260507113503 56 169 5.2 8.7 0.00 0.00 0.00 60
20260507113402 56 171 5.2 8.7 0.00 0.00 0.00 60
20260507113302 56 173 5.2 8.7 0.00 0.00 0.00 60
20260507113202 56 177 5.2 8.7 0.00 0.00 0.00 61
20260507113102 56 181 6.1 9.6 0.00 0.00 0.00 61
20260507113002 55 182 6.1 10.4 0.00 0.00 0.00 59
20260507112902 55 184 6.1 10.4 0.00 0.00 0.00 60
20260507112802 56 186 6.1 10.4 0.00 0.00 0.00 61
20260507112723 55 185 7.0 10.4 0.00 0.00 0.00 60
20260507112603 55 183 7.0 10.4 0.00 0.00 0.00 60
20260507112502 55 182 7.0 10.4 0.00 0.00 0.00 61
20260507112402 55 180 7.0 10.4 0.00 0.00 0.00 62
20260507112306 55 179 7.0 10.4 0.00 0.00 0.00 61
20260507112202 55 177 7.0 10.4 0.00 0.00 0.00 61
20260507112102 55 174 7.0 10.4 0.00 0.00 0.00 60
20260507112023 55 173 7.0 10.4 0.00 0.00 0.00 60
20260507111902 55 176 7.0 10.4 0.00 0.00 0.00 60
20260507111802 55 177 7.0 10.4 0.00 0.00 0.00 60
20260507111723 55 178 6.1 10.4 0.00 0.00 0.00 60
20260507111602 55 181 6.1 10.4 0.00 0.00 0.00 61
20260507111503 55 186 6.1 10.4 0.00 0.00 0.00 61
20260507111402 55 189 6.1 10.4 0.00 0.00 0.00 61
20260507111302 55 189 6.1 10.4 0.00 0.00 0.00 62
20260507111202 55 190 7.0 10.4 0.00 0.00 0.00 63
20260507111102 56 192 7.0 10.4 0.00 0.00 0.00 63
20260507111002 56 192 7.0 10.4 0.00 0.00 0.00 62
20260507110923 56 192 6.1 10.4 0.00 0.00 0.00 62
20260507110802 56 192 6.1 9.6 0.00 0.00 0.00 62
20260507110723 56 194 6.1 9.6 0.00 0.00 0.00 63
20260507110623 56 195 6.1 9.6 0.00 0.00 0.00 63
20260507110502 56 192 6.1 9.6 0.00 0.00 0.00 63
20260507110402 55 190 6.1 9.6 0.00 0.00 0.00 63
20260507110302 55 190 6.1 8.7 0.00 0.00 0.00 62
20260507110202 55 191 5.2 8.7 0.00 0.00 0.00 64
20260507110002 55 187 6.1 10.4 0.00 0.00 0.00 64
20260507105923 55 184 6.1 10.4 0.00 0.00 0.00 65
20260507105802 55 181 6.1 10.4 0.00 0.00 0.00 65
20260507105702 55 177 5.2 10.4 0.00 0.00 0.00 64
20260507105602 55 174 5.2 10.4 0.00 0.00 0.00 64
20260507105502 55 173 5.2 10.4 0.00 0.00 0.00 64
20260507105402 55 175 4.3 10.4 0.00 0.00 0.00 64
20260507105306 55 178 4.3 10.4 0.00 0.00 0.00 64
20260507105202 55 179 4.3 10.4 0.00 0.00 0.00 64
20260507105103 54 181 4.3 10.4 0.00 0.00 0.00 64
20260507105003 54 186 4.3 10.4 0.00 0.00 0.00 65
20260507104902 54 189 4.3 9.6 0.00 0.00 0.00 65
20260507104802 54 191 4.3 7.8 0.00 0.00 0.00 65
20260507104702 54 191 5.2 8.7 0.00 0.00 0.00 66
20260507104602 54 195 5.2 10.4 0.00 0.00 0.00 66
20260507104523 54 198 5.2 10.4 0.00 0.00 0.00 66
20260507104402 54 198 5.2 10.4 0.00 0.00 0.00 67
20260507104302 54 200 6.1 10.4 0.00 0.00 0.00 67
20260507104202 54 200 6.1 10.4 0.00 0.00 0.00 67
20260507104104 54 201 6.1 10.4 0.00 0.00 0.00 67
20260507104003 54 201 6.1 10.4 0.00 0.00 0.00 66
20260507103923 54 202 6.1 10.4 0.00 0.00 0.00 68
20260507103802 54 203 6.1 10.4 0.00 0.00 0.00 67
20260507103702 54 206 6.1 10.4 0.00 0.00 0.00 68
20260507103602 54 205 0.0 8.7 0.00 0.00 0.00 68
20260507103502 54 204 0.0 8.7 0.00 0.00 0.00 67
20260507103402 54 206 0.0 8.7 0.00 0.00 0.00 67
20260507103302 54 204 0.0 8.7 0.00 0.00 0.00 67
20260507103202 54 205 0.0 8.7 0.00 0.00 0.00 67
20260507103102 54 202 0.0 8.7 0.00 0.00 0.00 66
20260507103002 54 200 0.0 8.7 0.00 0.00 0.00 67
20260507102902 41 0 0.0 0.0 0.00 0.00 0.00 84
20260507102802 41 0 0.0 0.0 0.00 0.00 0.00 84
20260507102704 41 0 0.0 0.0 0.00 0.00 0.00 84
20260507102623 41 0 0.0 0.0 0.00 0.00 0.00 84
20260507102502 41 0 0.0 0.0 0.00 0.00 0.00 84
20260507102402 41 0 0.0 0.0 0.00 0.00 0.00 84
20260507102306 41 0 0.0 0.0 0.00 0.00 0.00 84
20260507102223 41 0 0.0 0.0 0.00 0.00 0.00 84
20260507102102 41 0 0.0 0.0 0.00 0.00 0.00 84
20260507102023 41 0 0.0 0.0 0.00 0.00 0.00 84
20260507101902 41 0 0.0 0.0 0.00 0.00 0.00 84
20260507101802 41 0 0.0 0.0 0.00 0.00 0.00 84
20260507101702 41 0 0.0 0.0 0.00 0.00 0.00 84
20260507101602 41 0 0.0 0.0 0.00 0.00 0.00 84
20260507101502 41 0 0.0 0.0 0.00 0.00 0.00 84
20260507101402 41 0 0.0 0.0 0.00 0.00 0.00 84
20260507101302 41 0 0.0 0.0 0.00 0.00 0.00 84
20260507101223 41 0 0.0 0.0 0.00 0.00 0.00 84
20260507101102 41 0 0.0 0.0 0.00 0.00 0.00 84
20260507101002 41 0 0.0 0.0 0.00 0.00 0.00 84
20260507100923 41 0 0.0 0.0 0.00 0.00 0.00 84
20260507100802 41 0 0.0 0.0 0.00 0.00 0.00 84
20260507100702 41 0 0.0 0.0 0.00 0.00 0.00 84
20260507100602 41 0 0.0 0.0 0.00 0.00 0.00 84
20260507100502 41 0 0.0 0.0 0.00 0.00 0.00 84
20260507100423 41 0 0.0 0.0 0.00 0.00 0.00 84
20260507100302 41 0 0.0 0.0 0.00 0.00 0.00 84
20260507100224 41 0 0.0 0.0 0.00 0.00 0.00 84
20260507100104 41 0 0.0 0.0 0.00 0.00 0.00 84
20260507100002 41 0 0.0 0.0 0.00 0.00 0.00 84
20260507095902 41 0 0.0 0.0 0.00 0.00 0.00 84
20260507095802 41 0 0.0 0.0 0.00 0.00 0.00 84
20260507095702 41 0 0.0 0.0 0.00 0.00 0.00 84
20260507095602 41 0 0.0 0.0 0.00 0.00 0.00 84
20260507095502 41 0 0.0 0.0 0.00 0.00 0.00 84
20260507095402 41 0 0.0 0.0 0.00 0.00 0.00 84
20260507095323 41 0 0.0 0.0 0.00 0.00 0.00 84
20260507095202 41 0 0.0 0.0 0.00 0.00 0.00 84
20260507095102 41 0 0.0 0.0 0.00 0.00 0.00 84
20260507095002 41 0 0.0 0.0 0.00 0.00 0.00 84
20260507094902 41 0 0.0 0.0 0.00 0.00 0.00 84
20260507094802 41 0 0.0 0.0 0.00 0.00 0.00 84
20260507094702 41 0 0.0 0.0 0.00 0.00 0.00 84
20260507094602 41 0 0.0 0.0 0.00 0.00 0.00 84
20260507094502 41 0 0.0 0.0 0.00 0.00 0.00 84
20260507094423 41 0 0.0 0.0 0.00 0.00 0.00 84
20260507094302 41 0 0.0 0.0 0.00 0.00 0.00 84
20260507094202 41 0 0.0 0.0 0.00 0.00 0.00 84
20260507094102 41 0 0.0 0.0 0.00 0.00 0.00 84
20260507094002 41 0 0.0 0.0 0.00 0.00 0.00 84
20260507093902 41 0 0.0 0.0 0.00 0.00 0.00 84
20260507093802 41 0 0.0 0.0 0.00 0.00 0.00 84
20260507093702 41 0 0.0 0.0 0.00 0.00 0.00 84
20260507093602 41 0 0.0 0.0 0.00 0.00 0.00 84
20260507093502 41 0 0.0 0.0 0.00 0.00 0.00 84
20260507093402 41 0 0.0 0.0 0.00 0.00 0.00 84
20260507093302 41 0 0.0 0.0 0.00 0.00 0.00 84
20260507093202 41 0 0.0 0.0 0.00 0.00 0.00 84
20260507093102 41 0 0.0 0.0 0.00 0.00 0.00 84
20260507093002 41 0 0.0 0.0 0.00 0.00 0.00 84
20260507092902 41 0 0.0 0.0 0.00 0.00 0.00 84
20260507092803 41 0 0.0 0.0 0.00 0.00 0.00 84
20260507092702 41 0 0.0 0.0 0.00 0.00 0.00 84
20260507092602 41 0 0.0 0.0 0.00 0.00 0.00 84
20260507092502 41 0 0.0 0.0 0.00 0.00 0.00 84
20260507092423 41 0 0.0 0.0 0.00 0.00 0.00 84
20260507092306 41 0 0.0 0.0 0.00 0.00 0.00 84
20260507092224 41 0 0.0 0.0 0.00 0.00 0.00 84
20260507092123 41 0 0.0 0.0 0.00 0.00 0.00 84
20260507092002 41 0 0.0 0.0 0.00 0.00 0.00 84
20260507091902 41 0 0.0 0.0 0.00 0.00 0.00 84
20260507091802 41 0 0.0 0.0 0.00 0.00 0.00 84
20260507091702 41 0 0.0 0.0 0.00 0.00 0.00 84
20260507091602 41 0 0.0 0.0 0.00 0.00 0.00 84
20260507091524 41 0 0.0 0.0 0.00 0.00 0.00 84
20260507091402 41 0 0.0 0.0 0.00 0.00 0.00 84
20260507091302 41 0 0.0 0.0 0.00 0.00 0.00 84
20260507091202 41 0 0.0 0.0 0.00 0.00 0.00 84
20260507091102 41 0 0.0 0.0 0.00 0.00 0.00 84
20260507091002 41 0 0.0 0.0 0.00 0.00 0.00 84
20260507090902 41 0 0.0 0.0 0.00 0.00 0.00 84
20260507090803 41 0 0.0 0.0 0.00 0.00 0.00 84
20260507090702 41 0 0.0 0.0 0.00 0.00 0.00 84
20260507090602 41 0 0.0 0.0 0.00 0.00 0.00 84
20260507090502 41 0 0.0 0.0 0.00 0.00 0.00 84
20260507090402 41 0 0.0 0.0 0.00 0.00 0.00 84
20260507090302 41 0 0.0 0.0 0.00 0.00 0.00 84
20260507090224 41 0 0.0 0.0 0.00 0.00 0.00 84
20260507090124 41 0 0.0 0.0 0.00 0.00 0.00 84
20260507090002 41 0 0.0 0.0 0.00 0.00 0.00 84
20260507085923 41 0 0.0 0.0 0.00 0.00 0.00 84
20260507085802 41 0 0.0 0.0 0.00 0.00 0.00 84
20260507085702 41 0 0.0 0.0 0.00 0.00 0.00 84
20260507085602 41 0 0.0 0.0 0.00 0.00 0.00 84
20260507085502 41 0 0.0 0.0 0.00 0.00 0.00 84
20260507085402 41 0 0.0 0.0 0.00 0.00 0.00 84
20260507085306 41 0 0.0 0.0 0.00 0.00 0.00 84
20260507085223 41 0 0.0 0.0 0.00 0.00 0.00 84
20260507085102 41 0 0.0 0.0 0.00 0.00 0.00 84
20260507085002 41 0 0.0 0.0 0.00 0.00 0.00 84
20260507084902 41 0 0.0 0.0 0.00 0.00 0.00 84
20260507084823 41 0 0.0 0.0 0.00 0.00 0.00 84
20260507084702 41 0 0.0 0.0 0.00 0.00 0.00 84
20260507084603 41 0 0.0 0.0 0.00 0.00 0.00 84
20260507084502 41 0 0.0 0.0 0.00 0.00 0.00 84
20260507084402 41 0 0.0 0.0 0.00 0.00 0.00 84
20260507084323 41 0 0.0 0.0 0.00 0.00 0.00 84
20260507084202 41 0 0.0 0.0 0.00 0.00 0.00 84
20260507084102 41 0 0.0 0.0 0.00 0.00 0.00 84
20260507084002 41 0 0.0 0.0 0.00 0.00 0.00 84
20260507083902 41 0 0.0 0.0 0.00 0.00 0.00 84
20260507083802 41 0 0.0 0.0 0.00 0.00 0.00 84
20260507083702 41 0 0.0 0.0 0.00 0.00 0.00 84
20260507083623 41 0 0.0 0.0 0.00 0.00 0.00 84
20260507083502 41 0 0.0 0.0 0.00 0.00 0.00 84
20260507083402 41 0 0.0 0.0 0.00 0.00 0.00 84
20260507083302 41 0 0.0 0.0 0.00 0.00 0.00 84
20260507083202 41 0 0.0 0.0 0.00 0.00 0.00 84
20260507083102 41 0 0.0 0.0 0.00 0.00 0.00 84
20260507083002 41 0 0.0 0.0 0.00 0.00 0.00 84
20260507082902 41 0 0.0 0.0 0.00 0.00 0.00 84
20260507082802 41 0 0.0 0.0 0.00 0.00 0.00 84
20260507082702 41 0 0.0 0.0 0.00 0.00 0.00 84
20260507082602 41 0 0.0 0.0 0.00 0.00 0.00 84
20260507082502 41 0 0.0 0.0 0.00 0.00 0.00 84
20260507082403 41 0 0.0 0.0 0.00 0.00 0.00 84
20260507082306 41 0 0.0 0.0 0.00 0.00 0.00 84
20260507082202 41 0 0.0 0.0 0.00 0.00 0.00 84
20260507082102 41 0 0.0 0.0 0.00 0.00 0.00 84
20260507082023 41 0 0.0 0.0 0.00 0.00 0.00 84
20260507081902 41 0 0.0 0.0 0.00 0.00 0.00 84
20260507081802 41 0 0.0 0.0 0.00 0.00 0.00 84
20260507081702 41 0 0.0 0.0 0.00 0.00 0.00 84
20260507081602 41 0 0.0 0.0 0.00 0.00 0.00 84
20260507081502 41 0 0.0 0.0 0.00 0.00 0.00 84
20260507081423 41 0 0.0 0.0 0.00 0.00 0.00 84
20260507081323 41 0 0.0 0.0 0.00 0.00 0.00 84
20260507081223 41 0 0.0 0.0 0.00 0.00 0.00 84
20260507081102 41 0 0.0 0.0 0.00 0.00 0.00 84
20260507081023 41 0 0.0 0.0 0.00 0.00 0.00 84
20260507080902 41 0 0.0 0.0 0.00 0.00 0.00 84
20260507080802 41 0 0.0 0.0 0.00 0.00 0.00 84
20260507080702 41 0 0.0 0.0 0.00 0.00 0.00 84
20260507080602 41 0 0.0 0.0 0.00 0.00 0.00 84
20260507080502 41 0 0.0 0.0 0.00 0.00 0.00 84
20260507080402 41 0 0.0 0.0 0.00 0.00 0.00 84
20260507080302 41 0 0.0 0.0 0.00 0.00 0.00 84
20260507080223 41 0 0.0 0.0 0.00 0.00 0.00 84
20260507080003 41 0 0.0 0.0 0.00 0.00 0.00 84
20260507075902 41 0 0.0 0.0 0.00 0.00 0.00 84
20260507075802 41 0 0.0 0.0 0.00 0.00 0.00 84
20260507075702 41 0 0.0 0.0 0.00 0.00 0.00 84
20260507075602 41 0 0.0 0.0 0.00 0.00 0.00 84
20260507075523 41 0 0.0 0.0 0.00 0.00 0.00 84
20260507075402 41 0 0.0 0.0 0.00 0.00 0.00 84
20260507075306 41 0 0.0 0.0 0.00 0.00 0.00 84
20260507075223 41 0 0.0 0.0 0.00 0.00 0.00 84
20260507075102 41 0 0.0 0.0 0.00 0.00 0.00 84
20260507075004 41 0 0.0 0.0 0.00 0.00 0.00 84
20260507074902 41 0 0.0 0.0 0.00 0.00 0.00 84
20260507074823 41 0 0.0 0.0 0.00 0.00 0.00 84
20260507074702 41 0 0.0 0.0 0.00 0.00 0.00 84
20260507074602 41 0 0.0 0.0 0.00 0.00 0.00 84
20260507074523 41 0 0.0 0.0 0.00 0.00 0.00 84
20260507074423 41 0 0.0 0.0 0.00 0.00 0.00 84
20260507074302 41 0 0.0 0.0 0.00 0.00 0.00 84
20260507074202 41 0 0.0 0.0 0.00 0.00 0.00 84
20260507074102 41 0 0.0 0.0 0.00 0.00 0.00 84
20260507074002 41 0 0.0 0.0 0.00 0.00 0.00 84
20260507073902 41 0 0.0 0.0 0.00 0.00 0.00 84
20260507073802 41 0 0.0 0.0 0.00 0.00 0.00 84
20260507073724 41 0 0.0 0.0 0.00 0.00 0.00 84
20260507073602 41 0 0.0 0.0 0.00 0.00 0.00 84
20260507073502 41 0 0.0 0.0 0.00 0.00 0.00 84
20260507073402 41 0 0.0 0.0 0.00 0.00 0.00 84
20260507073302 41 0 0.0 0.0 0.00 0.00 0.00 84
20260507073202 41 0 0.0 0.0 0.00 0.00 0.00 84
20260507073123 41 0 0.0 0.0 0.00 0.00 0.00 84
20260507073002 41 0 0.0 0.0 0.00 0.00 0.00 84
20260507072902 41 0 0.0 0.0 0.00 0.00 0.00 84
20260507072802 41 0 0.0 0.0 0.00 0.00 0.00 84
20260507072702 41 0 0.0 0.0 0.00 0.00 0.00 84
20260507072602 41 0 0.0 0.0 0.00 0.00 0.00 84
20260507072502 41 0 0.0 0.0 0.00 0.00 0.00 84
20260507072402 41 0 0.0 0.0 0.00 0.00 0.00 84
20260507072306 41 0 0.0 0.0 0.00 0.00 0.00 84
20260507072202 41 0 0.0 0.0 0.00 0.00 0.00 84
20260507072102 41 0 0.0 0.0 0.00 0.00 0.00 84
20260507072002 41 0 0.0 0.0 0.00 0.00 0.00 84
20260507071923 41 0 0.0 0.0 0.00 0.00 0.00 84
20260507071802 41 0 0.0 0.0 0.00 0.00 0.00 84
20260507071723 41 0 0.0 0.0 0.00 0.00 0.00 84
20260507071604 41 0 0.0 0.0 0.00 0.00 0.00 84
20260507071503 41 0 0.0 0.0 0.00 0.00 0.00 84
20260507071402 41 0 0.0 0.0 0.00 0.00 0.00 84
20260507071302 41 0 0.0 0.0 0.00 0.00 0.00 84
20260507071202 41 0 0.0 0.0 0.00 0.00 0.00 84
20260507071102 41 0 0.0 0.0 0.00 0.00 0.00 84
20260507071023 41 0 0.0 0.0 0.00 0.00 0.00 84
20260507070902 41 0 0.0 0.0 0.00 0.00 0.00 84
20260507070802 41 0 0.0 0.0 0.00 0.00 0.00 84
20260507070702 41 0 0.0 0.0 0.00 0.00 0.00 84
20260507070602 41 0 0.0 0.0 0.00 0.00 0.00 84
20260507070503 41 0 0.0 0.0 0.00 0.00 0.00 84
20260507070423 41 0 0.0 0.0 0.00 0.00 0.00 84
20260507070323 41 0 0.0 0.0 0.00 0.00 0.00 84
20260507070202 41 0 0.0 0.0 0.00 0.00 0.00 84
20260507070004 41 0 0.0 0.0 0.00 0.00 0.00 84
20260507065902 41 0 0.0 0.0 0.00 0.00 0.00 84
20260507065802 41 0 0.0 0.0 0.00 0.00 0.00 84
20260507065723 41 0 0.0 0.0 0.00 0.00 0.00 84
20260507065602 41 0 0.0 0.0 0.00 0.00 0.00 84
20260507065502 41 0 0.0 0.0 0.00 0.00 0.00 84
20260507065402 41 0 0.0 0.0 0.00 0.00 0.00 84
20260507065305 41 0 0.0 0.0 0.00 0.00 0.00 84
20260507065202 41 0 0.0 0.0 0.00 0.00 0.00 84
20260507065102 41 0 0.0 0.0 0.00 0.00 0.00 84
20260507065002 41 0 0.0 0.0 0.00 0.00 0.00 84
20260507064902 41 0 0.0 0.0 0.00 0.00 0.00 84
20260507064823 41 0 0.0 0.0 0.00 0.00 0.00 84
20260507064702 41 0 0.0 0.0 0.00 0.00 0.00 84
20260507064602 41 0 0.0 0.0 0.00 0.00 0.00 84
20260507064523 41 0 0.0 0.0 0.00 0.00 0.00 84
20260507064423 41 0 0.0 0.0 0.00 0.00 0.00 84
20260507064323 41 0 0.0 0.0 0.00 0.00 0.00 84
20260507064223 41 0 0.0 0.0 0.00 0.00 0.00 84
20260507064104 41 0 0.0 0.0 0.00 0.00 0.00 84
20260507064002 41 0 0.0 0.0 0.00 0.00 0.00 84
20260507063902 41 0 0.0 0.0 0.00 0.00 0.00 84
20260507063823 41 0 0.0 0.0 0.00 0.00 0.00 84
20260507063702 41 0 0.0 0.0 0.00 0.00 0.00 84
20260507063602 41 0 0.0 0.0 0.00 0.00 0.00 84
20260507063502 41 0 0.0 0.0 0.00 0.00 0.00 84
20260507063402 41 0 0.0 0.0 0.00 0.00 0.00 84
20260507063302 41 0 0.0 0.0 0.00 0.00 0.00 84
20260507063202 41 0 0.0 0.0 0.00 0.00 0.00 84
20260507063102 41 0 0.0 0.0 0.00 0.00 0.00 84
20260507063002 41 0 0.0 0.0 0.00 0.00 0.00 84
20260507062902 41 0 0.0 0.0 0.00 0.00 0.00 84
20260507062802 41 0 0.0 0.0 0.00 0.00 0.00 84
20260507062702 41 0 0.0 0.0 0.00 0.00 0.00 84
20260507062602 41 0 0.0 0.0 0.00 0.00 0.00 84
20260507062523 41 0 0.0 0.0 0.00 0.00 0.00 84
20260507062402 41 0 0.0 0.0 0.00 0.00 0.00 84
20260507062305 41 0 0.0 0.0 0.00 0.00 0.00 84
20260507062202 41 0 0.0 0.0 0.00 0.00 0.00 84
20260507062102 41 0 0.0 0.0 0.00 0.00 0.00 84
20260507062002 41 0 0.0 0.0 0.00 0.00 0.00 84
20260507061902 41 0 0.0 0.0 0.00 0.00 0.00 84
20260507061802 41 0 0.0 0.0 0.00 0.00 0.00 84
20260507061702 41 0 0.0 0.0 0.00 0.00 0.00 84
20260507061602 41 0 0.0 0.0 0.00 0.00 0.00 84
20260507061502 41 0 0.0 0.0 0.00 0.00 0.00 84
20260507061402 41 0 0.0 0.0 0.00 0.00 0.00 84
20260507061302 41 0 0.0 0.0 0.00 0.00 0.00 84
20260507061202 41 0 0.0 0.0 0.00 0.00 0.00 84
20260507061102 41 0 0.0 0.0 0.00 0.00 0.00 84
20260507061004 41 0 0.0 0.0 0.00 0.00 0.00 84
20260507060902 41 0 0.0 0.0 0.00 0.00 0.00 84
20260507060824 41 0 0.0 0.0 0.00 0.00 0.00 84
20260507060703 41 0 0.0 0.0 0.00 0.00 0.00 84
20260507060602 41 0 0.0 0.0 0.00 0.00 0.00 84
20260507060503 41 0 0.0 0.0 0.00 0.00 0.00 84
20260507060402 41 0 0.0 0.0 0.00 0.00 0.00 84
20260507060302 41 0 0.0 0.0 0.00 0.00 0.00 84
20260507060202 41 0 0.0 0.0 0.00 0.00 0.00 84
20260507060002 41 0 0.0 0.0 0.00 0.00 0.00 84
20260507055903 41 0 0.0 0.0 0.00 0.00 0.00 84
20260507055802 41 0 0.0 0.0 0.00 0.00 0.00 84
20260507055702 41 0 0.0 0.0 0.00 0.00 0.00 84
20260507055602 41 0 0.0 0.0 0.00 0.00 0.00 84
20260507055502 41 0 0.0 0.0 0.00 0.00 0.00 84
20260507055402 41 0 0.0 0.0 0.00 0.00 0.00 84
20260507055305 41 0 0.0 0.0 0.00 0.00 0.00 84
20260507055202 41 0 0.0 0.0 0.00 0.00 0.00 84
20260507055102 41 0 0.0 0.0 0.00 0.00 0.00 84
20260507055005 41 0 0.0 0.0 0.00 0.00 0.00 84
20260507054902 41 0 0.0 0.0 0.00 0.00 0.00 84
20260507054802 41 0 0.0 0.0 0.00 0.00 0.00 84
20260507054702 41 0 0.0 0.0 0.00 0.00 0.00 84
20260507054602 41 0 0.0 0.0 0.00 0.00 0.00 84
20260507054502 41 0 0.0 0.0 0.00 0.00 0.00 84
20260507054402 41 0 0.0 0.0 0.00 0.00 0.00 84
20260507054302 41 0 0.0 0.0 0.00 0.00 0.00 84
20260507054202 41 0 0.0 0.0 0.00 0.00 0.00 84
20260507054102 41 0 0.0 0.0 0.00 0.00 0.00 84
20260507054002 41 0 0.0 0.0 0.00 0.00 0.00 84
20260507053902 41 0 0.0 0.0 0.00 0.00 0.00 84
20260507053802 41 0 0.0 0.0 0.00 0.00 0.00 84
20260507053724 41 0 0.0 0.0 0.00 0.00 0.00 84
20260507053602 41 0 0.0 0.0 0.00 0.00 0.00 84
20260507053502 41 0 0.0 0.0 0.00 0.00 0.00 84
20260507053403 41 0 0.0 0.0 0.00 0.00 0.00 84
20260507053302 41 0 0.0 0.0 0.00 0.00 0.00 84
20260507053202 41 0 0.0 0.0 0.00 0.00 0.00 84
20260507053104 41 0 0.0 0.0 0.00 0.00 0.00 84
20260507053003 41 0 0.0 0.0 0.00 0.00 0.00 84
20260507052902 41 0 0.0 0.0 0.00 0.00 0.00 84
20260507052802 41 0 0.0 0.0 0.00 0.00 0.00 84
20260507052702 41 0 0.0 0.0 0.00 0.00 0.00 84
20260507052602 41 0 0.0 0.0 0.00 0.00 0.00 84
20260507052502 41 0 0.0 0.0 0.00 0.00 0.00 84
20260507052402 41 0 0.0 0.0 0.00 0.00 0.00 84
20260507052306 41 0 0.0 0.0 0.00 0.00 0.00 84
20260507052202 41 0 0.0 0.0 0.00 0.00 0.00 84
20260507052103 41 0 0.0 0.0 0.00 0.00 0.00 84
20260507052002 41 0 0.0 0.0 0.00 0.00 0.00 84
20260507051902 41 0 0.0 0.0 0.00 0.00 0.00 84
20260507051802 41 0 0.0 0.0 0.00 0.00 0.00 84
20260507051702 41 0 0.0 0.0 0.00 0.00 0.00 84
20260507051602 41 0 0.0 0.0 0.00 0.00 0.00 84
20260507051523 41 0 0.0 0.0 0.00 0.00 0.00 84
20260507051423 41 0 0.0 0.0 0.00 0.00 0.00 84
20260507051302 41 0 0.0 0.0 0.00 0.00 0.00 84
20260507051202 41 0 0.0 0.0 0.00 0.00 0.00 84
20260507051103 41 0 0.0 0.0 0.00 0.00 0.00 84
20260507051002 41 0 0.0 0.0 0.00 0.00 0.00 84
20260507050924 41 0 0.0 0.0 0.00 0.00 0.00 84
20260507050802 41 0 0.0 0.0 0.00 0.00 0.00 84
20260507050723 41 0 0.0 0.0 0.00 0.00 0.00 84
20260507050602 41 0 0.0 0.0 0.00 0.00 0.00 84
20260507050502 41 0 0.0 0.0 0.00 0.00 0.00 84
20260507050402 41 0 0.0 0.0 0.00 0.00 0.00 84
20260507050323 41 0 0.0 0.0 0.00 0.00 0.00 84
20260507050202 41 0 0.0 0.0 0.00 0.00 0.00 84
20260507050023 41 0 0.0 0.0 0.00 0.00 0.00 84
20260507045902 41 0 0.0 0.0 0.00 0.00 0.00 84
20260507045802 41 0 0.0 0.0 0.00 0.00 0.00 84
20260507045702 41 0 0.0 0.0 0.00 0.00 0.00 84
20260507045602 41 0 0.0 0.0 0.00 0.00 0.00 84
20260507045502 41 0 0.0 0.0 0.00 0.00 0.00 84
20260507045402 41 0 0.0 0.0 0.00 0.00 0.00 84
20260507045306 41 0 0.0 0.0 0.00 0.00 0.00 84
20260507045202 41 0 0.0 0.0 0.00 0.00 0.00 84
20260507045123 41 0 0.0 0.0 0.00 0.00 0.00 84
20260507045023 41 0 0.0 0.0 0.00 0.00 0.00 84
20260507044902 41 0 0.0 0.0 0.00 0.00 0.00 84
20260507044802 41 0 0.0 0.0 0.00 0.00 0.00 84
20260507044723 41 0 0.0 0.0 0.00 0.00 0.00 84
20260507044602 41 0 0.0 0.0 0.00 0.00 0.00 84
20260507044502 41 0 0.0 0.0 0.00 0.00 0.00 84
20260507044403 41 0 0.0 0.0 0.00 0.00 0.00 84
20260507044302 41 0 0.0 0.0 0.00 0.00 0.00 84
20260507044202 41 0 0.0 0.0 0.00 0.00 0.00 84
20260507044102 41 0 0.0 0.0 0.00 0.00 0.00 84
20260507044002 41 0 0.0 0.0 0.00 0.00 0.00 84
20260507043902 41 0 0.0 0.0 0.00 0.00 0.00 84
20260507043802 41 0 0.0 0.0 0.00 0.00 0.00 84
20260507043702 41 0 0.0 0.0 0.00 0.00 0.00 84
20260507043602 41 0 0.0 0.0 0.00 0.00 0.00 84
20260507043502 41 0 0.0 0.0 0.00 0.00 0.00 84
20260507043403 41 0 0.0 0.0 0.00 0.00 0.00 84
20260507043323 41 0 0.0 0.0 0.00 0.00 0.00 84
20260507043202 41 0 0.0 0.0 0.00 0.00 0.00 84
20260507043102 41 0 0.0 0.0 0.00 0.00 0.00 84
20260507043003 41 0 0.0 0.0 0.00 0.00 0.00 84
20260507042923 41 0 0.0 0.0 0.00 0.00 0.00 84
20260507042802 41 0 0.0 0.0 0.00 0.00 0.00 84
20260507042724 41 0 0.0 0.0 0.00 0.00 0.00 84
20260507042603 41 0 0.0 0.0 0.00 0.00 0.00 84
20260507042502 41 0 0.0 0.0 0.00 0.00 0.00 84
20260507042402 41 0 0.0 0.0 0.00 0.00 0.00 84
20260507042306 41 0 0.0 0.0 0.00 0.00 0.00 84
20260507042223 41 0 0.0 0.0 0.00 0.00 0.00 84
20260507042102 41 0 0.0 0.0 0.00 0.00 0.00 84
20260507042024 41 0 0.0 0.0 0.00 0.00 0.00 84
20260507041902 41 0 0.0 0.0 0.00 0.00 0.00 84
20260507041802 41 0 0.0 0.0 0.00 0.00 0.00 84
20260507041702 41 0 0.0 0.0 0.00 0.00 0.00 84
20260507041602 41 0 0.0 0.0 0.00 0.00 0.00 84
20260507041523 41 0 0.0 0.0 0.00 0.00 0.00 84
20260507041402 41 0 0.0 0.0 0.00 0.00 0.00 84
20260507041302 41 0 0.0 0.0 0.00 0.00 0.00 84
20260507041202 41 0 0.0 0.0 0.00 0.00 0.00 84
20260507041123 41 0 0.0 0.0 0.00 0.00 0.00 84
20260507041002 41 0 0.0 0.0 0.00 0.00 0.00 84
20260507040903 41 0 0.0 0.0 0.00 0.00 0.00 84
20260507040802 41 0 0.0 0.0 0.00 0.00 0.00 84
20260507040724 41 0 0.0 0.0 0.00 0.00 0.00 84
20260507040602 41 0 0.0 0.0 0.00 0.00 0.00 84
20260507040502 41 0 0.0 0.0 0.00 0.00 0.00 84
20260507040402 41 0 0.0 0.0 0.00 0.00 0.00 84
20260507040302 41 0 0.0 0.0 0.00 0.00 0.00 84
20260507040202 41 0 0.0 0.0 0.00 0.00 0.00 84
20260507040002 41 0 0.0 0.0 0.00 0.00 0.00 84
20260507035903 41 0 0.0 0.0 0.00 0.00 0.00 84
20260507035803 41 0 0.0 0.0 0.00 0.00 0.00 84
20260507035702 41 0 0.0 0.0 0.00 0.00 0.00 84
20260507035623 41 0 0.0 0.0 0.00 0.00 0.00 84
20260507035502 41 0 0.0 0.0 0.00 0.00 0.00 84
20260507035424 41 0 0.0 0.0 0.00 0.00 0.00 84
20260507035323 41 0 0.0 0.0 0.00 0.00 0.00 84
20260507035202 41 0 0.0 0.0 0.00 0.00 0.00 84
20260507035102 41 0 0.0 0.0 0.00 0.00 0.00 84
20260507035002 41 0 0.0 0.0 0.00 0.00 0.00 84
20260507034902 41 0 0.0 0.0 0.00 0.00 0.00 84
20260507034802 41 0 0.0 0.0 0.00 0.00 0.00 84
20260507034702 41 0 0.0 0.0 0.00 0.00 0.00 84
20260507034602 41 0 0.0 0.0 0.00 0.00 0.00 84
20260507034502 41 0 0.0 0.0 0.00 0.00 0.00 84
20260507034402 41 0 0.0 0.0 0.00 0.00 0.00 84
20260507034303 41 0 0.0 0.0 0.00 0.00 0.00 84
20260507034224 41 0 0.0 0.0 0.00 0.00 0.00 84
20260507034102 41 0 0.0 0.0 0.00 0.00 0.00 84
20260507034002 41 0 0.0 0.0 0.00 0.00 0.00 84
20260507033902 41 0 0.0 0.0 0.00 0.00 0.00 84
20260507033802 41 0 0.0 0.0 0.00 0.00 0.00 84
20260507033702 41 0 0.0 0.0 0.00 0.00 0.00 84
20260507033603 41 0 0.0 0.0 0.00 0.00 0.00 84
20260507033502 41 0 0.0 0.0 0.00 0.00 0.00 84
20260507033403 41 0 0.0 0.0 0.00 0.00 0.00 84
20260507033302 41 0 0.0 0.0 0.00 0.00 0.00 84
20260507033202 41 0 0.0 0.0 0.00 0.00 0.00 84
20260507033102 41 0 0.0 0.0 0.00 0.00 0.00 84
20260507033024 41 0 0.0 0.0 0.00 0.00 0.00 84
20260507032902 41 0 0.0 0.0 0.00 0.00 0.00 84
20260507032803 41 0 0.0 0.0 0.00 0.00 0.00 84
20260507032702 41 0 0.0 0.0 0.00 0.00 0.00 84
20260507032602 41 0 0.0 0.0 0.00 0.00 0.00 84
20260507032502 41 0 0.0 0.0 0.00 0.00 0.00 84
20260507032402 41 0 0.0 0.0 0.00 0.00 0.00 84
20260507032305 41 0 0.0 0.0 0.00 0.00 0.00 84
20260507032203 41 0 0.0 0.0 0.00 0.00 0.00 84
20260507032102 41 0 0.0 0.0 0.00 0.00 0.00 84
20260507032002 41 0 0.0 0.0 0.00 0.00 0.00 84
20260507031902 41 0 0.0 0.0 0.00 0.00 0.00 84
20260507031823 41 0 0.0 0.0 0.00 0.00 0.00 84
20260507031702 41 0 0.0 0.0 0.00 0.00 0.00 84
20260507031602 41 0 0.0 0.0 0.00 0.00 0.00 84
20260507031503 41 0 0.0 0.0 0.00 0.00 0.00 84
20260507031402 41 0 0.0 0.0 0.00 0.00 0.00 84
20260507031302 41 0 0.0 0.0 0.00 0.00 0.00 84
20260507031202 41 0 0.0 0.0 0.00 0.00 0.00 84
20260507031102 41 0 0.0 0.0 0.00 0.00 0.00 84
20260507031002 41 0 0.0 0.0 0.00 0.00 0.00 84
20260507030902 41 0 0.0 0.0 0.00 0.00 0.00 84
20260507030802 41 0 0.0 0.0 0.00 0.00 0.00 84
20260507030702 41 0 0.0 0.0 0.00 0.00 0.00 84
20260507030602 41 0 0.0 0.0 0.00 0.00 0.00 84
20260507030502 41 0 0.0 0.0 0.00 0.00 0.00 84
20260507030402 41 0 0.0 0.0 0.00 0.00 0.00 84
20260507030323 41 0 0.0 0.0 0.00 0.00 0.00 84
20260507030203 41 0 0.0 0.0 0.00 0.00 0.00 84
20260507030003 41 0 0.0 0.0 0.00 0.00 0.00 84
20260507025903 41 0 0.0 0.0 0.00 0.00 0.00 84
20260507025823 41 0 0.0 0.0 0.00 0.00 0.00 84
20260507025702 41 0 0.0 0.0 0.00 0.00 0.00 84
20260507025603 41 0 0.0 0.0 0.00 0.00 0.00 84
20260507025502 41 0 0.0 0.0 0.00 0.00 0.00 84
20260507025403 41 0 0.0 0.0 0.00 0.00 0.00 84
20260507025306 41 0 0.0 0.0 0.00 0.00 0.00 84
20260507025202 41 0 0.0 0.0 0.00 0.00 0.00 84
20260507025102 41 0 0.0 0.0 0.00 0.00 0.00 84
20260507025003 41 0 0.0 0.0 0.00 0.00 0.00 84
20260507024903 41 0 0.0 0.0 0.00 0.00 0.00 84
20260507024803 41 0 0.0 0.0 0.00 0.00 0.00 84
20260507024704 41 0 0.0 0.0 0.00 0.00 0.00 84
20260507024604 41 0 0.0 0.0 0.00 0.00 0.00 84
20260507024524 41 0 0.0 0.0 0.00 0.00 0.00 84
20260507024424 41 0 0.0 0.0 0.00 0.00 0.00 84
20260507024302 41 0 0.0 0.0 0.00 0.00 0.00 84
20260507024202 41 0 0.0 0.0 0.00 0.00 0.00 84
20260507024102 41 0 0.0 0.0 0.00 0.00 0.00 84
20260507024023 41 0 0.0 0.0 0.00 0.00 0.00 84
20260507023903 41 0 0.0 0.0 0.00 0.00 0.00 84
20260507023823 41 0 0.0 0.0 0.00 0.00 0.00 84
20260507023702 41 0 0.0 0.0 0.00 0.00 0.00 84
20260507023603 41 0 0.0 0.0 0.00 0.00 0.00 84
20260507023503 41 0 0.0 0.0 0.00 0.00 0.00 84
20260507023402 41 0 0.0 0.0 0.00 0.00 0.00 84
20260507023302 41 0 0.0 0.0 0.00 0.00 0.00 84
20260507023202 41 0 0.0 0.0 0.00 0.00 0.00 84
20260507023102 41 0 0.0 0.0 0.00 0.00 0.00 84
20260507023002 41 0 0.0 0.0 0.00 0.00 0.00 84
20260507022902 41 0 0.0 0.0 0.00 0.00 0.00 84
20260507022802 41 0 0.0 0.0 0.00 0.00 0.00 84
20260507022702 41 0 0.0 0.0 0.00 0.00 0.00 84
20260507022602 41 0 0.0 0.0 0.00 0.00 0.00 84
20260507022502 41 0 0.0 0.0 0.00 0.00 0.00 84
20260507022402 41 0 0.0 0.0 0.00 0.00 0.00 84
20260507022323 41 0 0.0 0.0 0.00 0.00 0.00 84
20260507022202 41 0 0.0 0.0 0.00 0.00 0.00 84
20260507022102 41 0 0.0 0.0 0.00 0.00 0.00 84
20260507022002 41 0 0.0 0.0 0.00 0.00 0.00 84
20260507021902 41 0 0.0 0.0 0.00 0.00 0.00 84
20260507021803 41 0 0.0 0.0 0.00 0.00 0.00 84
20260507021703 41 0 0.0 0.0 0.00 0.00 0.00 84
20260507021602 41 0 0.0 0.0 0.00 0.00 0.00 84
20260507021503 41 0 0.0 0.0 0.00 0.00 0.00 84
20260507021423 41 0 0.0 0.0 0.00 0.00 0.00 84
20260507021302 41 0 0.0 0.0 0.00 0.00 0.00 84
20260507021202 41 0 0.0 0.0 0.00 0.00 0.00 84
20260507021102 41 0 0.0 0.0 0.00 0.00 0.00 84
20260507021002 41 0 0.0 0.0 0.00 0.00 0.00 84
20260507020903 41 0 0.0 0.0 0.00 0.00 0.00 84
20260507020823 41 0 0.0 0.0 0.00 0.00 0.00 84
20260507020702 41 0 0.0 0.0 0.00 0.00 0.00 84
20260507020602 41 0 0.0 0.0 0.00 0.00 0.00 84
20260507020504 41 0 0.0 0.0 0.00 0.00 0.00 84
20260507020402 41 0 0.0 0.0 0.00 0.00 0.00 84
20260507020302 41 0 0.0 0.0 0.00 0.00 0.00 84
20260507020202 41 0 0.0 0.0 0.00 0.00 0.00 84
20260507020124 41 0 0.0 0.0 0.00 0.00 0.00 84
20260507020003 41 0 0.0 0.0 0.00 0.00 0.00 84
20260507015903 41 0 0.0 0.0 0.00 0.00 0.00 84
20260507015802 41 0 0.0 0.0 0.00 0.00 0.00 84
20260507015703 41 0 0.0 0.0 0.00 0.00 0.00 84
20260507015603 41 0 0.0 0.0 0.00 0.00 0.00 84
20260507015502 41 0 0.0 0.0 0.00 0.00 0.00 84
20260507015404 41 0 0.0 0.0 0.00 0.00 0.00 84
20260507015306 41 0 0.0 0.0 0.00 0.00 0.00 84
20260507015223 41 0 0.0 0.0 0.00 0.00 0.00 84
20260507015102 41 0 0.0 0.0 0.00 0.00 0.00 84
20260507015003 41 0 0.0 0.0 0.00 0.00 0.00 84
20260507014903 41 0 0.0 0.0 0.00 0.00 0.00 84
20260507014802 41 0 0.0 0.0 0.00 0.00 0.00 84
20260507014702 41 0 0.0 0.0 0.00 0.00 0.00 84
20260507014603 41 0 0.0 0.0 0.00 0.00 0.00 84
20260507014523 41 0 0.0 0.0 0.00 0.00 0.00 84
20260507014402 41 0 0.0 0.0 0.00 0.00 0.00 84
20260507014324 41 0 0.0 0.0 0.00 0.00 0.00 84
20260507014203 41 0 0.0 0.0 0.00 0.00 0.00 84
20260507014103 41 0 0.0 0.0 0.00 0.00 0.00 84
20260507014002 41 0 0.0 0.0 0.00 0.00 0.00 84
20260507013903 41 0 0.0 0.0 0.00 0.00 0.00 84
20260507013802 41 0 0.0 0.0 0.00 0.00 0.00 84
20260507013702 41 0 0.0 0.0 0.00 0.00 0.00 84
20260507013602 41 0 0.0 0.0 0.00 0.00 0.00 84
20260507013502 41 0 0.0 0.0 0.00 0.00 0.00 84
20260507013403 41 0 0.0 0.0 0.00 0.00 0.00 84
20260507013302 41 0 0.0 0.0 0.00 0.00 0.00 84
20260507013223 41 0 0.0 0.0 0.00 0.00 0.00 84
20260507013102 41 0 0.0 0.0 0.00 0.00 0.00 84
20260507013003 41 0 0.0 0.0 0.00 0.00 0.00 84
20260507012902 41 0 0.0 0.0 0.00 0.00 0.00 84
20260507012803 41 0 0.0 0.0 0.00 0.00 0.00 84
20260507012703 41 0 0.0 0.0 0.00 0.00 0.00 84
20260507012602 41 0 0.0 0.0 0.00 0.00 0.00 84
20260507012503 41 0 0.0 0.0 0.00 0.00 0.00 84
20260507012402 41 0 0.0 0.0 0.00 0.00 0.00 84
20260507012306 41 0 0.0 0.0 0.00 0.00 0.00 84
20260507012203 41 0 0.0 0.0 0.00 0.00 0.00 84
20260507012103 41 0 0.0 0.0 0.00 0.00 0.00 84
20260507012002 41 0 0.0 0.0 0.00 0.00 0.00 84
20260507011924 41 0 0.0 0.0 0.00 0.00 0.00 84
20260507011802 41 0 0.0 0.0 0.00 0.00 0.00 84
20260507011702 41 0 0.0 0.0 0.00 0.00 0.00 84
20260507011603 41 0 0.0 0.0 0.00 0.00 0.00 84
20260507011503 41 0 0.0 0.0 0.00 0.00 0.00 84
20260507011402 41 0 0.0 0.0 0.00 0.00 0.00 84
20260507011302 41 0 0.0 0.0 0.00 0.00 0.00 84
20260507011224 41 0 0.0 0.0 0.00 0.00 0.00 84
20260507011102 41 0 0.0 0.0 0.00 0.00 0.00 84
20260507011024 41 0 0.0 0.0 0.00 0.00 0.00 84
20260507010902 41 0 0.0 0.0 0.00 0.00 0.00 84
20260507010803 41 0 0.0 0.0 0.00 0.00 0.00 84
20260507010703 41 0 0.0 0.0 0.00 0.00 0.00 84
20260507010602 41 0 0.0 0.0 0.00 0.00 0.00 84
20260507010502 41 0 0.0 0.0 0.00 0.00 0.00 84
20260507010402 41 0 0.0 0.0 0.00 0.00 0.00 84
20260507010303 41 0 0.0 0.0 0.00 0.00 0.00 84
20260507010202 41 0 0.0 0.0 0.00 0.00 0.00 84
20260507010003 41 0 0.0 0.0 0.00 0.00 0.00 84
20260507005903 41 0 0.0 0.0 0.00 0.00 0.00 84
20260507005803 41 0 0.0 0.0 0.00 0.00 0.00 84
20260507005703 41 0 0.0 0.0 0.00 0.00 0.00 84
20260507005602 41 0 0.0 0.0 0.00 0.00 0.00 84
20260507005502 41 0 0.0 0.0 0.00 0.00 0.00 84
20260507005402 41 0 0.0 0.0 0.00 0.00 0.00 84
20260507005324 41 0 0.0 0.0 0.00 0.00 0.00 84
20260507005203 41 0 0.0 0.0 0.00 0.00 0.00 84
20260507005103 41 0 0.0 0.0 0.00 0.00 0.00 84
20260507005002 41 0 0.0 0.0 0.00 0.00 0.00 84
20260507004903 41 0 0.0 0.0 0.00 0.00 0.00 84
20260507004802 41 0 0.0 0.0 0.00 0.00 0.00 84
20260507004703 41 0 0.0 0.0 0.00 0.00 0.00 84
20260507004624 41 0 0.0 0.0 0.00 0.00 0.00 84
20260507004524 41 0 0.0 0.0 0.00 0.00 0.00 84
20260507004402 41 0 0.0 0.0 0.00 0.00 0.00 84
20260507004323 41 0 0.0 0.0 0.00 0.00 0.00 84
20260507004203 41 0 0.0 0.0 0.00 0.00 0.00 84
20260507004103 41 0 0.0 0.0 0.00 0.00 0.00 84
20260507004003 41 0 0.0 0.0 0.00 0.00 0.00 84
20260507003903 41 0 0.0 0.0 0.00 0.00 0.00 84
20260507003802 41 0 0.0 0.0 0.00 0.00 0.00 84
20260507003703 41 0 0.0 0.0 0.00 0.00 0.00 84
20260507003624 41 0 0.0 0.0 0.00 0.00 0.00 84
20260507003502 41 0 0.0 0.0 0.00 0.00 0.00 84
20260507003402 41 0 0.0 0.0 0.00 0.00 0.00 84
20260507003302 41 0 0.0 0.0 0.00 0.00 0.00 84
20260507003203 41 0 0.0 0.0 0.00 0.00 0.00 84
20260507003103 41 0 0.0 0.0 0.00 0.00 0.00 84
20260507003003 41 0 0.0 0.0 0.00 0.00 0.00 84
20260507002903 41 0 0.0 0.0 0.00 0.00 0.00 84
20260507002803 41 0 0.0 0.0 0.00 0.00 0.00 84
20260507002703 41 0 0.0 0.0 0.00 0.00 0.00 84
20260507002602 41 0 0.0 0.0 0.00 0.00 0.00 84
20260507002503 41 0 0.0 0.0 0.00 0.00 0.00 84
20260507002402 41 0 0.0 0.0 0.00 0.00 0.00 84
20260507002305 41 0 0.0 0.0 0.00 0.00 0.00 84
20260507002202 41 0 0.0 0.0 0.00 0.00 0.00 84
20260507002102 41 0 0.0 0.0 0.00 0.00 0.00 84
20260507002002 41 0 0.0 0.0 0.00 0.00 0.00 84
20260507001903 41 0 0.0 0.0 0.00 0.00 0.00 84
20260507001802 41 0 0.0 0.0 0.00 0.00 0.00 84
20260507001703 41 0 0.0 0.0 0.00 0.00 0.00 84
20260507001602 41 0 0.0 0.0 0.00 0.00 0.00 84
20260507001502 41 0 0.0 0.0 0.00 0.00 0.00 84
20260507001402 41 0 0.0 0.0 0.00 0.00 0.00 84
20260507001303 41 0 0.0 0.0 0.00 0.00 0.00 84
20260507001203 41 0 0.0 0.0 0.00 0.00 0.00 84
20260507001102 41 0 0.0 0.0 0.00 0.00 0.00 84
20260507001003 41 0 0.0 0.0 0.00 0.00 0.00 84
20260507000902 41 0 0.0 0.0 0.00 0.00 0.00 84
20260507000803 41 0 0.0 0.0 0.00 0.00 0.00 84
20260507000703 41 0 0.0 0.0 0.00 0.00 0.00 84
20260507000602 41 0 0.0 0.0 0.00 0.00 0.00 84
20260507000503 41 0 0.0 0.0 0.00 0.00 0.00 84
20260507000405 41 0 0.0 0.0 0.00 0.00 0.00 84
20260507000302 41 0 0.0 0.0 0.00 0.00 0.00 84
20260507000204 41 0 0.0 0.0 0.00 0.00 0.00 84
20260507000003 41 0 0.0 0.0 0.00 0.00 0.00 84
20260506235924 41 0 0.0 0.0 0.00 0.00 0.00 84
20260506235802 41 0 0.0 0.0 0.00 0.00 0.00 84
20260506235723 41 0 0.0 0.0 0.00 0.00 0.00 84
20260506235602 41 0 0.0 0.0 0.00 0.00 0.00 84
20260506235503 41 0 0.0 0.0 0.00 0.00 0.00 84
20260506235403 41 0 0.0 0.0 0.00 0.00 0.00 84
20260506235306 41 0 0.0 0.0 0.00 0.00 0.00 84
20260506235203 41 0 0.0 0.0 0.00 0.00 0.00 84
20260506235103 41 0 0.0 0.0 0.00 0.00 0.00 84
20260506235003 41 0 0.0 0.0 0.00 0.00 0.00 84
20260506234903 41 0 0.0 0.0 0.00 0.00 0.00 84
20260506234802 41 0 0.0 0.0 0.00 0.00 0.00 84
20260506234703 41 0 0.0 0.0 0.00 0.00 0.00 84
20260506234603 41 0 0.0 0.0 0.00 0.00 0.00 84
20260506234503 41 0 0.0 0.0 0.00 0.00 0.00 84
20260506234402 41 0 0.0 0.0 0.00 0.00 0.00 84
20260506234323 41 0 0.0 0.0 0.00 0.00 0.00 84
20260506234204 41 0 0.0 0.0 0.00 0.00 0.00 84
20260506234103 41 0 0.0 0.0 0.00 0.00 0.00 84
20260506234024 41 0 0.0 0.0 0.00 0.00 0.00 84
20260506233902 41 0 0.0 0.0 0.00 0.00 0.00 84
20260506233803 41 0 0.0 0.0 0.00 0.00 0.00 84
20260506233702 41 0 0.0 0.0 0.00 0.00 0.00 84
20260506233602 41 0 0.0 0.0 0.00 0.00 0.00 84
20260506233503 41 0 0.0 0.0 0.00 0.00 0.00 84
20260506233402 41 0 0.0 0.0 0.00 0.00 0.00 84
20260506233303 41 0 0.0 0.0 0.00 0.00 0.00 84
20260506233203 41 0 0.0 0.0 0.00 0.00 0.00 84
20260506233103 41 0 0.0 0.0 0.00 0.00 0.00 84
20260506233002 41 0 0.0 0.0 0.00 0.00 0.00 84
20260506232903 41 0 0.0 0.0 0.00 0.00 0.00 84
20260506232802 41 0 0.0 0.0 0.00 0.00 0.00 84
20260506232703 41 0 0.0 0.0 0.00 0.00 0.00 84
20260506232602 41 0 0.0 0.0 0.00 0.00 0.00 84
20260506232524 41 0 0.0 0.0 0.00 0.00 0.00 84
20260506232403 41 0 0.0 0.0 0.00 0.00 0.00 84
20260506232324 41 0 0.0 0.0 0.00 0.00 0.00 84
20260506232202 41 0 0.0 0.0 0.00 0.00 0.00 84
20260506232102 41 0 0.0 0.0 0.00 0.00 0.00 84
20260506232002 41 0 0.0 0.0 0.00 0.00 0.00 84
20260506231903 41 0 0.0 0.0 0.00 0.00 0.00 84
20260506231803 41 0 0.0 0.0 0.00 0.00 0.00 84
20260506231702 41 0 0.0 0.0 0.00 0.00 0.00 84
20260506231603 41 0 0.0 0.0 0.00 0.00 0.00 84
20260506231502 41 0 0.0 0.0 0.00 0.00 0.00 84
20260506231424 41 0 0.0 0.0 0.00 0.00 0.00 84
20260506231302 41 0 0.0 0.0 0.00 0.00 0.00 84
20260506231203 41 0 0.0 0.0 0.00 0.00 0.00 84
20260506231102 41 0 0.0 0.0 0.00 0.00 0.00 84
20260506231003 41 0 0.0 0.0 0.00 0.00 0.00 84
20260506230903 41 0 0.0 0.0 0.00 0.00 0.00 84
20260506230803 41 0 0.0 0.0 0.00 0.00 0.00 84
20260506230724 41 0 0.0 0.0 0.00 0.00 0.00 84
20260506230604 41 0 0.0 0.0 0.00 0.00 0.00 84
20260506230523 41 0 0.0 0.0 0.00 0.00 0.00 84
20260506230402 41 0 0.0 0.0 0.00 0.00 0.00 84
20260506230302 41 0 0.0 0.0 0.00 0.00 0.00 84
20260506230202 41 0 0.0 0.0 0.00 0.00 0.00 84
20260506230103 41 0 0.0 0.0 0.00 0.00 0.00 84
20260506230003 41 0 0.0 0.0 0.00 0.00 0.00 84
20260506225904 41 122 0.0 0.9 0.00 0.00 0.00 84
20260506225803 41 122 0.0 0.9 0.00 0.00 0.00 84
20260506225703 41 122 0.0 1.7 0.00 0.00 0.00 84
20260506225602 41 122 0.0 1.7 0.00 0.00 0.00 84
20260506225503 41 122 0.0 1.7 0.00 0.00 0.00 84
20260506225423 41 122 0.0 1.7 0.00 0.00 0.00 84
20260506225305 41 122 0.0 1.7 0.00 0.00 0.00 84
20260506225203 41 122 0.9 1.7 0.00 0.00 0.00 84
20260506225102 41 122 0.9 1.7 0.00 0.00 0.00 84
20260506225002 41 122 0.9 2.6 0.00 0.00 0.00 84
20260506224903 41 122 0.9 2.6 0.00 0.00 0.00 84
20260506224803 41 122 0.9 2.6 0.00 0.00 0.00 84
20260506224702 41 122 0.9 2.6 0.00 0.00 0.00 84
20260506224603 41 122 0.9 2.6 0.00 0.00 0.00 84
20260506224503 41 122 0.9 2.6 0.00 0.00 0.00 85
20260506224402 41 123 0.9 2.6 0.00 0.00 0.00 85
20260506224303 41 124 0.9 3.5 0.00 0.00 0.00 85
20260506224203 41 124 0.9 3.5 0.00 0.00 0.00 85
20260506224124 41 125 0.9 3.5 0.00 0.00 0.00 85
20260506224003 41 126 1.7 3.5 0.00 0.00 0.00 85
20260506223903 41 125 1.7 3.5 0.00 0.00 0.00 85
20260506223803 41 125 1.7 3.5 0.00 0.00 0.00 85
20260506223724 41 124 1.7 3.5 0.00 0.00 0.00 85
20260506223603 41 124 1.7 3.5 0.00 0.00 0.00 85
20260506223503 41 123 0.9 3.5 0.00 0.00 0.00 85
20260506223403 41 123 0.9 3.5 0.00 0.00 0.00 85
20260506223303 41 122 0.9 3.5 0.00 0.00 0.00 85
20260506223203 41 121 0.9 3.5 0.00 0.00 0.00 85
20260506223103 41 119 0.9 3.5 0.00 0.00 0.00 85
20260506223003 41 116 0.9 3.5 0.00 0.00 0.00 85
20260506222924 41 116 0.9 3.5 0.00 0.00 0.00 85
20260506222803 41 114 0.9 3.5 0.00 0.00 0.00 85
20260506222703 41 114 0.0 1.7 0.00 0.00 0.00 85
20260506222603 41 114 0.0 1.7 0.00 0.00 0.00 84
20260506222503 41 114 0.0 1.7 0.00 0.00 0.00 85
20260506222403 41 114 0.0 1.7 0.00 0.00 0.00 85
20260506222324 41 114 0.0 1.7 0.00 0.00 0.00 85
20260506222203 41 114 0.0 1.7 0.00 0.00 0.00 84
20260506222102 41 114 0.0 1.7 0.00 0.00 0.00 84
20260506222003 41 114 0.0 1.7 0.00 0.00 0.00 84
20260506221923 41 114 0.0 1.7 0.00 0.00 0.00 84
20260506221825 41 113 0.0 0.9 0.00 0.00 0.00 84
20260506221702 41 0 0.0 0.0 0.00 0.00 0.00 84
20260506221624 41 0 0.0 0.0 0.00 0.00 0.00 84
20260506221502 41 0 0.0 0.0 0.00 0.00 0.00 84
20260506221403 41 0 0.0 0.0 0.00 0.00 0.00 84
20260506221304 41 0 0.0 0.0 0.00 0.00 0.00 84
20260506221202 41 0 0.0 0.0 0.00 0.00 0.00 84
20260506221102 41 0 0.0 0.0 0.00 0.00 0.00 84
20260506221002 41 0 0.0 0.0 0.00 0.00 0.00 84
20260506220924 41 0 0.0 0.0 0.00 0.00 0.00 83
20260506220824 41 114 0.0 0.9 0.00 0.00 0.00 83
20260506220703 41 114 0.0 0.9 0.00 0.00 0.00 83
20260506220603 42 114 0.0 0.9 0.00 0.00 0.00 83
20260506220503 42 114 0.0 0.9 0.00 0.00 0.00 82
20260506220424 42 114 0.0 0.9 0.00 0.00 0.00 82
20260506220302 42 114 0.0 0.9 0.00 0.00 0.00 82
20260506220203 42 114 0.0 0.9 0.00 0.00 0.00 82
20260506220003 42 114 0.0 0.9 0.00 0.00 0.00 82
20260506215903 42 114 0.0 0.9 0.00 0.00 0.00 82
20260506215803 42 114 0.0 0.9 0.00 0.00 0.00 82
20260506215703 42 114 0.0 0.9 0.00 0.00 0.00 82
20260506215603 42 114 0.0 0.9 0.00 0.00 0.00 82
20260506215503 43 114 0.0 0.9 0.00 0.00 0.00 82
20260506215403 43 114 0.0 1.7 0.00 0.00 0.00 82
20260506215306 43 114 0.0 1.7 0.00 0.00 0.00 81
20260506215203 43 114 0.0 1.7 0.00 0.00 0.00 81
20260506215103 43 114 0.9 2.6 0.00 0.00 0.00 81
20260506215003 43 115 0.9 4.3 0.00 0.00 0.00 81
20260506214903 43 114 0.9 4.3 0.00 0.00 0.00 81
20260506214823 43 114 0.9 4.3 0.00 0.00 0.00 81
20260506214703 43 112 0.9 4.3 0.00 0.00 0.00 81
20260506214603 43 111 1.7 4.3 0.00 0.00 0.00 81
20260506214503 43 108 1.7 4.3 0.00 0.00 0.00 81
20260506214403 43 108 1.7 4.3 0.00 0.00 0.00 81
20260506214303 43 107 2.6 5.2 0.00 0.00 0.00 81
20260506214203 43 105 2.6 5.2 0.00 0.00 0.00 81
20260506214103 43 104 2.6 5.2 0.00 0.00 0.00 81
20260506214003 43 104 2.6 5.2 0.00 0.00 0.00 81
20260506213924 43 103 2.6 5.2 0.00 0.00 0.00 81
20260506213803 43 103 3.5 5.2 0.00 0.00 0.00 81
20260506213724 43 103 3.5 5.2 0.00 0.00 0.00 81
20260506213603 43 103 3.5 5.2 0.00 0.00 0.00 81
20260506213524 43 103 3.5 5.2 0.00 0.00 0.00 81
20260506213403 43 103 4.3 6.1 0.00 0.00 0.00 81
20260506213303 43 103 4.3 6.1 0.00 0.00 0.00 81
20260506213204 43 103 4.3 6.1 0.00 0.00 0.00 81
20260506213124 43 103 4.3 6.1 0.00 0.00 0.00 81
20260506213003 43 103 4.3 6.1 0.00 0.00 0.00 81
20260506212924 43 103 4.3 6.1 0.00 0.00 0.00 81
20260506212803 43 102 4.3 6.1 0.00 0.00 0.00 81
20260506212703 43 103 4.3 6.1 0.00 0.00 0.00 81
20260506212603 43 103 4.3 6.1 0.00 0.00 0.00 81
20260506212524 43 104 3.5 6.1 0.00 0.00 0.00 81
20260506212424 43 105 3.5 6.1 0.00 0.00 0.00 81
20260506212306 43 106 3.5 6.1 0.00 0.00 0.00 81
20260506212202 43 108 3.5 6.1 0.00 0.00 0.00 81
20260506212103 43 108 3.5 6.1 0.00 0.00 0.00 81
20260506212003 43 110 3.5 6.1 0.00 0.00 0.00 81
20260506211903 43 112 3.5 6.1 0.00 0.00 0.00 81
20260506211824 43 113 3.5 6.1 0.00 0.00 0.00 81
20260506211704 43 112 3.5 6.1 0.00 0.00 0.00 81
20260506211624 43 112 2.6 6.1 0.00 0.00 0.00 81
20260506211503 43 110 3.5 5.2 0.00 0.00 0.00 81
20260506211403 43 109 3.5 5.2 0.00 0.00 0.00 80
20260506211303 43 107 3.5 5.2 0.00 0.00 0.00 80
20260506211203 43 107 3.5 5.2 0.00 0.00 0.00 80
20260506211104 43 107 3.5 5.2 0.00 0.00 0.00 80
20260506211003 43 105 2.6 5.2 0.00 0.00 0.00 80
20260506210924 43 104 2.6 5.2 0.00 0.00 0.00 80
20260506210803 43 103 3.5 5.2 0.00 0.00 0.00 80
20260506210703 43 103 3.5 5.2 0.00 0.00 0.00 80
20260506210603 43 103 3.5 5.2 0.00 0.00 0.00 80
20260506210524 43 103 2.6 5.2 0.00 0.00 0.00 80
20260506210403 43 103 2.6 5.2 0.00 0.00 0.00 80
20260506210303 43 103 2.6 5.2 0.00 0.00 0.00 80
20260506210224 43 103 2.6 5.2 0.00 0.00 0.00 80
20260506210003 43 102 2.6 5.2 0.00 0.00 0.00 80
20260506205904 43 102 2.6 5.2 0.00 0.00 0.00 80
20260506205803 43 102 2.6 5.2 0.00 0.00 0.00 80
20260506205703 43 102 2.6 5.2 0.00 0.00 0.00 79
20260506205603 43 102 2.6 4.3 0.00 0.00 0.00 79
20260506205503 43 103 1.7 4.3 0.00 0.00 0.00 79
20260506205424 43 103 1.7 4.3 0.00 0.00 0.00 79
20260506205305 43 104 1.7 4.3 0.00 0.00 0.00 79
20260506205203 43 105 1.7 4.3 0.00 0.00 0.00 79
20260506205104 43 106 1.7 4.3 0.00 0.00 0.00 79
20260506205003 43 106 1.7 4.3 0.00 0.00 0.00 79
20260506204924 44 107 1.7 4.3 0.00 0.00 0.00 79
20260506204803 44 107 1.7 4.3 0.00 0.00 0.00 78
20260506204703 44 106 1.7 3.5 0.00 0.00 0.00 78
20260506204603 44 106 1.7 3.5 0.00 0.00 0.00 78
20260506204502 44 106 1.7 3.5 0.00 0.00 0.00 78
20260506204403 44 106 1.7 3.5 0.00 0.00 0.00 78
20260506204303 44 106 1.7 4.3 0.00 0.00 0.00 78
20260506204203 44 105 1.7 4.3 0.00 0.00 0.00 78
20260506204103 44 104 1.7 4.3 0.00 0.00 0.00 78
20260506204003 44 104 1.7 4.3 0.00 0.00 0.00 78
20260506203904 44 103 1.7 4.3 0.00 0.00 0.00 78
20260506203803 44 102 1.7 4.3 0.00 0.00 0.00 78
20260506203703 44 102 2.6 5.2 0.00 0.00 0.00 77
20260506203603 44 102 2.6 5.2 0.00 0.00 0.00 77
20260506203503 44 103 2.6 5.2 0.00 0.00 0.00 77
20260506203403 44 103 3.5 5.2 0.00 0.00 0.00 77
20260506203302 44 103 3.5 5.2 0.00 0.00 0.00 77
20260506203203 44 103 3.5 5.2 0.00 0.00 0.00 77
20260506203103 44 102 3.5 5.2 0.00 0.00 0.00 77
20260506203003 44 102 3.5 6.1 0.00 0.00 0.00 77
20260506202903 44 102 3.5 6.1 0.00 0.00 0.00 77
20260506202824 44 103 3.5 6.1 0.00 0.00 0.00 77
20260506202703 44 104 3.5 6.1 0.00 0.00 0.00 77
20260506202603 44 104 3.5 6.1 0.00 0.00 0.00 77
20260506202503 44 103 3.5 6.1 0.00 0.00 0.00 77
20260506202403 44 102 3.5 6.1 0.00 0.00 0.00 77
20260506202306 44 103 3.5 6.1 0.00 0.00 0.00 77
20260506202203 44 104 4.3 6.1 0.00 0.00 0.00 77
20260506202124 44 104 4.3 6.1 0.00 0.00 0.00 77
20260506202003 44 104 4.3 6.1 0.00 0.00 0.00 76
20260506201903 44 105 4.3 6.1 0.00 0.00 0.00 76
20260506201803 44 105 4.3 6.1 0.00 0.00 0.00 76
20260506201703 44 104 4.3 6.1 0.00 0.00 0.00 76
20260506201603 44 104 4.3 6.1 0.00 0.00 0.00 76
20260506201503 44 104 4.3 6.1 0.00 0.00 0.00 76
20260506201403 44 105 4.3 6.1 0.00 0.00 0.00 76
20260506201303 44 105 3.5 6.1 0.00 0.00 0.00 76
20260506201224 45 105 3.5 6.1 0.00 0.00 0.00 76
20260506201103 44 105 3.5 6.1 0.00 0.00 0.00 76
20260506201024 45 106 3.5 7.0 0.00 0.00 0.00 76
20260506200904 45 105 4.3 7.0 0.00 0.00 0.00 76
20260506200824 45 105 4.3 7.0 0.00 0.00 0.00 76
20260506200703 45 105 4.3 7.0 0.00 0.00 0.00 76
20260506200603 45 106 4.3 7.0 0.00 0.00 0.00 76
20260506200503 45 105 4.3 7.0 0.00 0.00 0.00 76
20260506200403 45 105 4.3 7.0 0.00 0.00 0.00 76
20260506200304 45 104 4.3 7.0 0.00 0.00 0.00 76
20260506200224 45 104 4.3 7.0 0.00 0.00 0.00 75
20260506200003 45 103 4.3 6.1 0.00 0.00 0.00 75
20260506195903 45 102 4.3 7.0 0.00 0.00 0.00 75
20260506195803 45 102 4.3 7.0 0.00 0.00 0.00 75
20260506195703 45 101 4.3 7.0 0.00 0.00 0.00 75
20260506195603 45 101 4.3 7.0 0.00 0.00 0.00 75
20260506195503 45 102 4.3 7.0 0.00 0.00 0.00 75
20260506195403 45 103 4.3 7.0 0.00 0.00 0.00 75
20260506195305 45 103 4.3 7.0 0.00 0.00 0.00 75
20260506195203 45 103 4.3 7.0 0.00 0.00 0.00 75
20260506195103 45 103 4.3 7.0 0.00 0.00 0.00 75
20260506195024 45 103 4.3 7.0 0.00 0.00 0.00 75
20260506194903 45 104 4.3 7.0 0.00 0.00 0.00 75
20260506194803 45 104 4.3 7.0 0.00 0.00 0.00 74
20260506194703 45 105 4.3 7.0 0.00 0.00 0.00 74
20260506194624 45 105 4.3 7.0 0.00 0.00 0.00 74
20260506194503 45 105 4.3 7.0 0.00 0.00 0.00 74
20260506194403 45 104 5.2 7.8 0.00 0.00 0.00 74
20260506194324 45 105 5.2 7.8 0.00 0.00 0.00 74
20260506194224 45 104 5.2 7.8 0.00 0.00 0.00 74
20260506194103 45 104 5.2 7.8 0.00 0.00 0.00 74
20260506194003 45 103 5.2 7.8 0.00 0.00 0.00 74
20260506193924 45 104 5.2 7.8 0.00 0.00 0.00 74
20260506193803 46 103 5.2 7.8 0.00 0.00 0.00 74
20260506193703 46 103 5.2 7.8 0.00 0.00 0.00 74
20260506193603 46 103 5.2 7.8 0.00 0.00 0.00 74
20260506193524 46 103 5.2 7.8 0.00 0.00 0.00 74
20260506193424 46 103 5.2 7.8 0.00 0.00 0.00 74
20260506193303 46 103 5.2 7.8 0.00 0.00 0.00 74
20260506193224 46 102 5.2 7.8 0.00 0.00 0.00 74
20260506193103 46 104 4.3 7.8 0.00 0.00 0.00 74
20260506193003 46 105 4.3 7.8 0.00 0.00 0.00 74
20260506192904 46 105 4.3 7.8 0.00 0.00 0.00 74
20260506192824 46 105 4.3 7.8 0.00 0.00 0.00 74
20260506192703 46 105 4.3 7.8 0.00 0.00 0.00 74
20260506192624 46 105 4.3 7.8 0.00 0.00 0.00 74
20260506192503 46 106 4.3 7.8 0.00 0.00 0.00 73
20260506192403 46 107 4.3 9.6 0.00 0.00 0.00 73
20260506192305 46 107 4.3 9.6 0.00 0.00 0.00 74
20260506192203 46 107 4.3 9.6 0.00 0.00 0.00 74
20260506192103 46 106 5.2 9.6 0.00 0.00 0.00 73
20260506192003 46 105 5.2 9.6 0.00 0.00 0.00 73
20260506191903 46 105 5.2 9.6 0.00 0.00 0.00 73
20260506191803 46 104 5.2 9.6 0.00 0.00 0.00 73
20260506191703 46 104 5.2 9.6 0.00 0.00 0.00 73
20260506191603 46 104 6.1 9.6 0.00 0.00 0.00 73
20260506191503 46 104 6.1 9.6 0.00 0.00 0.00 73
20260506191424 46 102 6.1 9.6 0.00 0.00 0.00 73
20260506191303 46 101 6.1 9.6 0.00 0.00 0.00 73
20260506191224 46 100 6.1 9.6 0.00 0.00 0.00 73
20260506191103 46 100 6.1 9.6 0.00 0.00 0.00 73
20260506191003 46 101 6.1 9.6 0.00 0.00 0.00 73
20260506190904 46 101 5.2 9.6 0.00 0.00 0.00 73
20260506190803 46 101 5.2 9.6 0.00 0.00 0.00 73
20260506190703 46 101 5.2 9.6 0.00 0.00 0.00 73
20260506190603 46 102 5.2 9.6 0.00 0.00 0.00 73
20260506190503 46 101 5.2 9.6 0.00 0.00 0.00 73
20260506190404 46 103 5.2 9.6 0.00 0.00 0.00 73
20260506190303 47 104 5.2 8.7 0.00 0.00 0.00 73
20260506190203 47 105 5.2 8.7 0.00 0.00 0.00 73
20260506190124 47 105 5.2 8.7 0.00 0.00 0.00 73
20260506190024 47 105 5.2 9.6 0.00 0.00 0.00 73
20260506185924 47 105 6.1 9.6 0.00 0.00 0.00 73
20260506185803 47 105 6.1 9.6 0.00 0.00 0.00 73
20260506185703 47 104 6.1 11.3 0.00 0.00 0.00 72
20260506185603 47 103 6.1 11.3 0.00 0.00 0.00 72
20260506185504 47 104 6.1 11.3 0.00 0.00 0.00 72
20260506185403 47 103 6.1 11.3 0.00 0.00 0.00 72
20260506185306 47 104 7.0 11.3 0.00 0.00 0.00 72
20260506185203 47 104 6.1 11.3 0.00 0.00 0.00 72
20260506185103 47 104 6.1 11.3 0.00 0.00 0.00 72
20260506185003 47 104 6.1 11.3 0.00 0.00 0.00 72
20260506184903 47 104 6.1 11.3 0.00 0.00 0.00 72
20260506184803 47 104 6.1 11.3 0.00 0.00 0.00 72
20260506184703 47 104 6.1 10.4 0.00 0.00 0.00 72
20260506184604 47 104 6.1 10.4 0.00 0.00 0.00 71
20260506184503 47 104 6.1 10.4 0.00 0.00 0.00 71
20260506184403 47 104 6.1 10.4 0.00 0.00 0.00 71
20260506184324 47 103 6.1 10.4 0.00 0.00 0.00 71
20260506184224 47 103 7.0 10.4 0.00 0.00 0.00 71
20260506184103 47 102 7.0 10.4 0.00 0.00 0.00 71
20260506184024 47 102 7.0 10.4 0.00 0.00 0.00 71
20260506183925 47 103 7.0 10.4 0.00 0.00 0.00 70
20260506183803 47 103 7.0 10.4 0.00 0.00 0.00 70
20260506183703 47 103 7.0 11.3 0.00 0.00 0.00 70
20260506183603 47 103 7.8 12.2 0.00 0.00 0.00 70
20260506183524 47 102 7.8 12.2 0.00 0.00 0.00 70
20260506183403 48 101 7.8 12.2 0.00 0.00 0.00 70
20260506183303 48 102 7.8 12.2 0.00 0.00 0.00 69
20260506183203 48 101 7.8 12.2 0.00 0.00 0.00 69
20260506183124 48 101 7.8 12.2 0.00 0.00 0.00 69
20260506183005 48 101 7.8 12.2 0.00 0.00 0.00 69
20260506182903 48 101 7.8 12.2 0.00 0.00 0.00 69
20260506182803 48 102 7.8 12.2 0.00 0.00 0.00 69
20260506182703 48 103 7.8 12.2 0.00 0.00 0.00 68
20260506182603 48 103 7.0 12.2 0.00 0.00 0.00 68
20260506182503 48 103 7.0 12.2 0.00 0.00 0.00 68
20260506182403 48 101 7.0 11.3 0.00 0.00 0.00 68
20260506182324 48 101 7.0 12.2 0.00 0.00 0.00 68
20260506182203 48 101 7.0 12.2 0.00 0.00 0.00 68
20260506182103 48 101 7.0 12.2 0.00 0.00 0.00 67
20260506182003 48 100 7.0 12.2 0.00 0.00 0.00 67
20260506181903 48 99 7.0 12.2 0.00 0.00 0.00 67
20260506181825 48 99 7.0 12.2 0.00 0.00 0.00 67
20260506181703 48 97 7.0 12.2 0.00 0.00 0.00 67
20260506181603 49 98 7.0 12.2 0.00 0.00 0.00 66
20260506181503 49 98 7.8 12.2 0.00 0.00 0.00 66
20260506181425 49 99 7.8 12.2 0.00 0.00 0.00 66
20260506181303 49 100 7.8 12.2 0.00 0.00 0.00 66
20260506181203 49 100 7.8 12.2 0.00 0.00 0.00 66
20260506181103 49 101 7.8 12.2 0.00 0.00 0.00 66
20260506181003 49 100 7.8 12.2 0.00 0.00 0.00 65
20260506180924 49 100 7.8 12.2 0.00 0.00 0.00 65
20260506180824 49 100 7.8 12.2 0.00 0.00 0.00 65
20260506180703 49 100 7.8 12.2 0.00 0.00 0.00 65
20260506180603 49 100 7.8 12.2 0.00 0.00 0.00 65
20260506180504 49 99 7.0 12.2 0.00 0.00 0.00 65
20260506180403 49 97 7.0 12.2 0.00 0.00 0.00 66
20260506180303 49 97 7.0 11.3 0.00 0.00 0.00 66
20260506180224 49 95 7.0 9.6 0.00 0.00 0.00 66
20260506180003 49 96 7.0 10.4 0.00 0.00 0.00 65
20260506175903 49 96 7.0 10.4 0.00 0.00 0.00 66
20260506175803 49 96 7.0 11.3 0.00 0.00 0.00 66
20260506175703 49 97 7.0 11.3 0.00 0.00 0.00 66
20260506175603 49 96 7.0 11.3 0.00 0.00 0.00 66
20260506175503 49 96 7.0 11.3 0.00 0.00 0.00 66
20260506175403 49 97 7.0 11.3 0.00 0.00 0.00 66
20260506175306 49 97 7.0 11.3 0.00 0.00 0.00 66
20260506175203 49 100 7.0 11.3 0.00 0.00 0.00 66
20260506175103 49 99 7.0 11.3 0.00 0.00 0.00 67
20260506175003 49 99 7.0 11.3 0.00 0.00 0.00 67
20260506174903 49 100 7.0 11.3 0.00 0.00 0.00 68
20260506174803 49 100 7.0 10.4 0.00 0.00 0.00 68
20260506174703 49 100 7.0 10.4 0.00 0.00 0.00 69
20260506174624 49 100 7.0 10.4 0.00 0.00 0.00 69
20260506174524 49 102 7.0 10.4 0.00 0.00 0.00 69
20260506174403 49 102 7.0 10.4 0.00 0.00 0.00 69
20260506174303 49 102 7.0 10.4 0.00 0.00 0.00 69
20260506174224 49 102 7.0 9.6 0.00 0.00 0.00 69
20260506174103 49 101 7.0 9.6 0.00 0.00 0.00 69
20260506174003 49 102 7.0 10.4 0.00 0.00 0.00 70
20260506173903 49 101 7.0 10.4 0.00 0.00 0.00 70
20260506173824 49 101 7.0 10.4 0.00 0.00 0.00 70
20260506173703 49 100 7.0 10.4 0.00 0.00 0.00 70
20260506173603 49 101 6.1 10.4 0.00 0.00 0.00 70
20260506173524 49 101 6.1 10.4 0.00 0.00 0.00 70
20260506173403 49 102 7.0 10.4 0.00 0.00 0.00 70
20260506173303 49 102 7.0 10.4 0.00 0.00 0.00 70
20260506173224 49 102 7.0 11.3 0.00 0.00 0.00 70
20260506173003 49 102 7.0 11.3 0.00 0.00 0.00 70 1016.5
20260506172903 49 101 7.0 11.3 0.00 0.00 0.00 69 1016.5
20260506172804 49 99 7.0 11.3 0.00 0.00 0.00 69 1016.5
20260506172346 49 96 7.0 11.3 0.00 0.00 0.00 68
20260506172247 49 95 7.0 11.3 0.00 0.00 0.00 68
20260506172145 49 92 7.0 11.3 0.00 0.00 0.00 67
20260506172045 49 90 7.0 11.3 0.00 0.00 0.00 67
20260506171948 49 92 7.0 11.3 0.00 0.00 0.00 67
20260506171908 49 91 6.1 11.3 0.00 0.00 0.00 67
20260506171809 49 90 6.1 13.0 0.00 0.00 0.00 67
20260506171647 49 87 6.1 13.0 0.00 0.00 0.00 67
20260506171610 49 88 7.0 13.0 0.00 0.00 0.00 67
20260506171446 49 89 7.0 13.0 0.00 0.00 0.00 67
20260506171346 49 90 7.0 13.0 0.00 0.00 0.00 67
20260506171245 49 91 7.0 13.0 0.00 0.00 0.00 67
20260506171148 49 93 7.0 13.0 0.00 0.00 0.00 67
20260506171045 49 92 7.0 13.0 0.00 0.00 0.00 68
20260506170945 49 89 7.0 13.0 0.00 0.00 0.00 67
20260506170846 49 88 7.8 13.0 0.00 0.00 0.00 68
20260506170745 49 88 7.0 12.2 0.00 0.00 0.00 67
20260506170645 49 90 7.8 12.2 0.00 0.00 0.00 67
20260506170545 49 90 7.8 12.2 0.00 0.00 0.00 68
20260506170446 49 89 7.8 12.2 0.00 0.00 0.00 68
20260506170345 49 87 7.8 12.2 0.00 0.00 0.00 67
20260506170245 49 88 7.8 12.2 0.00 0.00 0.00 68
20260506170145 49 88 8.7 12.2 0.00 0.00 0.00 67
20260506170044 49 89 7.8 12.2 0.00 0.00 0.00 68
20260506170006 49 90 7.8 12.2 0.00 0.00 0.00 68
20260506165906 50 90 7.8 12.2 0.00 0.00 0.00 68
20260506165745 50 92 7.8 12.2 0.00 0.00 0.00 68
20260506165706 50 91 7.8 12.2 0.00 0.00 0.00 68
20260506165545 50 88 7.8 12.2 0.00 0.00 0.00 67
20260506165444 50 88 7.8 12.2 0.00 0.00 0.00 67
20260506165345 50 88 7.8 12.2 0.00 0.00 0.00 67
20260506165245 50 86 7.8 11.3 0.00 0.00 0.00 67
20260506165145 50 84 7.0 10.4 0.00 0.00 0.00 67
20260506165045 50 82 7.0 10.4 0.00 0.00 0.00 67
20260506164945 50 84 7.0 10.4 0.00 0.00 0.00 66
20260506164844 50 84 7.8 10.4 0.00 0.00 0.00 66
20260506164806 50 85 7.0 10.4 0.00 0.00 0.00 66
20260506164645 50 85 7.8 12.2 0.00 0.00 0.00 66
20260506164606 50 86 7.8 12.2 0.00 0.00 0.00 66
20260506164445 50 88 7.8 12.2 0.00 0.00 0.00 66
20260506164346 50 90 7.8 12.2 0.00 0.00 0.00 66
20260506164245 50 93 7.8 13.9 0.00 0.00 0.00 65
20260506164145 50 94 7.8 13.9 0.00 0.00 0.00 65
20260506164045 50 97 7.8 13.9 0.00 0.00 0.00 65
20260506163945 50 98 8.7 13.9 0.00 0.00 0.00 65
20260506163845 50 98 7.8 13.9 0.00 0.00 0.00 65
20260506163806 51 98 7.8 13.9 0.00 0.00 0.00 65
20260506163645 50 97 7.8 13.9 0.00 0.00 0.00 66
20260506163545 50 97 7.8 13.9 0.00 0.00 0.00 66
20260506163506 50 98 7.8 13.9 0.00 0.00 0.00 66
20260506163345 51 99 8.7 15.6 0.00 0.00 0.00 66
20260506163245 51 98 7.8 15.6 0.00 0.00 0.00 65
20260506163206 51 97 7.8 15.6 0.00 0.00 0.00 65
20260506163045 51 94 7.8 15.6 0.00 0.00 0.00 66
20260506162945 51 92 7.8 15.6 0.00 0.00 0.00 66
20260506162845 51 92 7.8 15.6 0.00 0.00 0.00 66
20260506162745 51 92 7.8 15.6 0.00 0.00 0.00 66
20260506162645 51 91 7.8 15.6 0.00 0.00 0.00 66
20260506162545 51 90 7.8 15.6 0.00 0.00 0.00 65
20260506162445 51 87 7.8 13.0 0.00 0.00 0.00 65
20260506162345 51 84 7.8 13.0 0.00 0.00 0.00 65